M I D A S
Marine Information and Data Acquisition System
Tripno 1622 of the Zeeleeuw from 2008-12-18 08:26:27 to 2008-12-18 15:57:38
Back to CruiseResearch ActivitiesStationsMapUnderway DataData graphs

EquipmentUnitsComment
TimeDGPSUTC
LatitudeDGPSDM.mWGS84
LongitudeDGPSDM.mWGS84
TemperatureSBE03/SBE38deg celciusITS90
ConductivitySBE21S/mITS90
SalinitySBE21 Practical Salinity Units
ChlorophylAChelsea fluorimeterg/lCalibrated in Aceton
Missing or incorrect values are displayed as -999
Sea surface data collected by the RV Zeeleeuw from 2008-12-18 08:28:12 to 2008-12-18 16:00:09
                                                                                    Next 1000 lines
Time Latitude Longitude Temperature Conductivity Salinity ChlorophylA
2008-12-18 08:28:22 51°13.661 2°55.954 -999 0.067523 0.372981 -1.035392
2008-12-18 08:28:27 51°13.662 2°55.951 -999 0.067523 0.372987 -1.035392
2008-12-18 08:28:32 51°13.663 2°55.947 -999 0.067523 0.372987 -1.035392
2008-12-18 08:28:37 51°13.664 2°55.943 -999 0.067523 0.372987 -1.035392
2008-12-18 08:28:42 51°13.665 2°55.938 -999 0.067523 0.372987 -1.035392
2008-12-18 08:28:47 51°13.667 2°55.932 -999 0.067523 0.372994 -1.035392
2008-12-18 08:28:52 51°13.668 2°55.926 -999 0.067523 0.372994 -1.035392
2008-12-18 08:28:57 51°13.669 2°55.919 -999 0.067523 0.372994 -1.070216
2008-12-18 08:29:02 51°13.671 2°55.912 -999 0.067523 0.372994 -1.035392
2008-12-18 08:29:07 51°13.672 2°55.905 -999 0.067523 0.373001 -1.035392
2008-12-18 08:29:12 51°13.674 2°55.897 -999 0.067523 0.373001 -1.035392
2008-12-18 08:29:17 51°13.676 2°55.889 -999 0.067523 0.373001 -1.035392
2008-12-18 08:29:22 51°13.678 2°55.881 -999 0.067523 0.373001 -1.035392
2008-12-18 08:29:27 51°13.68 2°55.873 -999 0.067523 0.373001 -1.035392
2008-12-18 08:29:32 51°13.682 2°55.864 -999 0.067523 0.373007 -1.035392
2008-12-18 08:29:37 51°13.684 2°55.855 -999 0.067523 0.373007 -1.035392
2008-12-18 08:29:42 51°13.686 2°55.846 -999 0.067523 0.373007 -1.035392
2008-12-18 08:29:47 51°13.688 2°55.837 -999 0.067523 0.373007 -1.035392
2008-12-18 08:29:52 51°13.69 2°55.828 -999 0.067523 0.373007 -1.035392
2008-12-18 08:29:57 51°13.691 2°55.818 -999 0.067523 0.373014 -1.035392
2008-12-18 08:30:02 51°13.692 2°55.809 -999 0.067523 0.373014 -1.035392
2008-12-18 08:30:07 51°13.694 2°55.8 -999 0.067523 0.373014 -1.035392
2008-12-18 08:30:12 51°13.695 2°55.792 -999 0.067523 0.373014 -1.035392
2008-12-18 08:30:17 51°13.695 2°55.783 -999 0.067523 0.373021 -1.035392
2008-12-18 08:30:22 51°13.696 2°55.775 -999 0.067523 0.373021 -1.035392
2008-12-18 08:30:27 51°13.696 2°55.767 -999 0.067523 0.373021 -1.035392
2008-12-18 08:30:32 51°13.697 2°55.76 -999 0.067523 0.373021 -1.070216
2008-12-18 08:30:37 51°13.697 2°55.753 -999 0.067523 0.373021 -1.070216
2008-12-18 08:30:42 51°13.698 2°55.746 -999 0.067523 0.373021 -1.035392
2008-12-18 08:30:47 51°13.698 2°55.741 -999 0.067523 0.373021 -1.035392
2008-12-18 08:30:52 51°13.698 2°55.737 -999 0.067523 0.373021 -1.035392
2008-12-18 08:30:57 51°13.698 2°55.734 -999 0.067523 0.373014 -1.035392
2008-12-18 08:31:02 51°13.699 2°55.733 -999 0.067523 0.373014 -1.035392
2008-12-18 08:31:07 51°13.699 2°55.733 -999 0.067523 0.373014 -1.035392
2008-12-18 08:31:12 51°13.7 2°55.734 -999 0.067523 0.373014 -1.035392
2008-12-18 08:31:17 51°13.701 2°55.734 -999 0.067523 0.373027 -1.070216
2008-12-18 08:31:21 51°13.701 2°55.734 -999 0.067523 0.373027 -1.070216
2008-12-18 08:31:26 51°13.702 2°55.734 -999 0.067523 0.373027 -1.035392
2008-12-18 08:31:32 51°13.702 2°55.733 -999 0.067523 0.373034 -1.035392
2008-12-18 08:31:37 51°13.701 2°55.732 -999 0.067523 0.373034 -1.035392
2008-12-18 08:31:41 51°13.701 2°55.73 -999 0.067523 0.373034 -1.035392
2008-12-18 08:31:46 51°13.7 2°55.728 -999 0.067523 0.373034 -1.035392
2008-12-18 08:31:52 51°13.698 2°55.726 -999 0.067523 0.373034 -1.035392
2008-12-18 08:31:57 51°13.698 2°55.724 -999 0.067523 0.373034 -1.035392
2008-12-18 08:32:01 51°13.697 2°55.723 -999 0.067523 0.373027 -1.070216
2008-12-18 08:32:06 51°13.698 2°55.722 -999 0.067523 0.373027 -1.070216
2008-12-18 08:32:12 51°13.7 2°55.721 -999 0.067523 0.373027 -1.035392
2008-12-18 08:32:17 51°13.702 2°55.721 -999 0.067523 0.373027 -1.035392
2008-12-18 08:32:21 51°13.705 2°55.72 -999 0.067523 0.373027 -1.035392
2008-12-18 08:32:26 51°13.709 2°55.718 -999 0.067523 0.373034 -1.035392
2008-12-18 08:32:32 51°13.716 2°55.714 -999 0.067523 0.373041 -1.035392
2008-12-18 08:32:37 51°13.722 2°55.709 -999 0.067523 0.373041 -1.035392
2008-12-18 08:32:41 51°13.727 2°55.705 -999 0.067523 0.373041 -1.035392
2008-12-18 08:32:46 51°13.734 2°55.699 -999 0.067523 0.373034 -1.035392
2008-12-18 08:32:52 51°13.744 2°55.692 -999 0.067523 0.373034 -1.035392
2008-12-18 08:32:57 51°13.753 2°55.686 -999 0.067523 0.373034 -1.035392
2008-12-18 08:33:01 51°13.761 2°55.681 -999 0.067523 0.373027 -1.035392
2008-12-18 08:33:06 51°13.769 2°55.675 -999 0.067523 0.373034 -1.035392
2008-12-18 08:33:11 51°13.778 2°55.67 -999 0.067523 0.373041 -1.035392
2008-12-18 08:33:17 51°13.788 2°55.663 -999 0.067523 0.373047 -1.035392
2008-12-18 08:33:21 51°13.795 2°55.659 -999 0.067523 0.373047 -1.035392
2008-12-18 08:33:26 51°13.804 2°55.653 -999 0.067523 0.373061 -1.035392
2008-12-18 08:33:31 51°13.813 2°55.647 -999 0.067523 0.373068 -1.035392
2008-12-18 08:33:37 51°13.824 2°55.639 -999 0.067523 0.373068 -1.035392
2008-12-18 08:33:41 51°13.832 2°55.634 -999 0.067523 0.373068 -1.070216
2008-12-18 08:33:46 51°13.842 2°55.627 -999 0.067523 0.373074 -1.035392
2008-12-18 08:33:51 51°13.852 2°55.62 -999 0.067523 0.373074 -1.035392
2008-12-18 08:33:57 51°13.864 2°55.611 -999 0.067523 0.373068 -1.035392
2008-12-18 08:34:02 51°13.875 2°55.604 -999 0.067523 0.373068 -1.035392
2008-12-18 08:34:06 51°13.884 2°55.598 -999 0.067523 0.373061 -1.035392
2008-12-18 08:34:12 51°13.897 2°55.589 -999 0.067523 0.373068 -1.035392
2008-12-18 08:34:17 51°13.908 2°55.581 -999 0.067523 0.373068 -1.035392
2008-12-18 08:34:21 51°13.917 2°55.574 -999 0.067523 0.373068 -1.035392
2008-12-18 08:34:26 51°13.928 2°55.566 -999 0.067523 0.373074 -1.035392
2008-12-18 08:34:32 51°13.942 2°55.557 -999 0.067523 0.373081 -1.035392
2008-12-18 08:34:37 51°13.953 2°55.549 -999 0.067523 0.373088 -1.035392
2008-12-18 08:34:41 51°13.963 2°55.543 -999 0.067523 0.373094 -1.035392
2008-12-18 08:34:46 51°13.974 2°55.535 -999 0.067523 0.373101 -1.035392
2008-12-18 08:34:52 51°13.988 2°55.526 -999 0.067523 0.373101 -1.035392
2008-12-18 08:34:57 51°13.999 2°55.518 -999 0.067523 0.373101 -1.070216
2008-12-18 08:35:01 51°14.008 2°55.511 -999 0.067523 0.373101 -1.035392
2008-12-18 08:35:06 51°14.019 2°55.503 -999 0.067523 0.373101 -1.035392
2008-12-18 08:35:12 51°14.033 2°55.493 -999 0.067523 0.373094 -1.035392
2008-12-18 08:35:17 51°14.044 2°55.485 -999 0.067523 0.373094 -1.035392
2008-12-18 08:35:21 51°14.054 2°55.478 -999 0.067523 0.373094 -1.035392
2008-12-18 08:35:26 51°14.065 2°55.47 -999 0.067523 0.373088 -1.035392
2008-12-18 08:35:31 51°14.076 2°55.461 -999 0.067523 0.373094 -1.035392
2008-12-18 08:35:37 51°14.09 2°55.451 -999 0.067523 0.373094 -1.035392
2008-12-18 08:35:41 51°14.098 2°55.444 -999 0.067523 0.373094 -1.035392
2008-12-18 08:35:46 51°14.11 2°55.435 -999 0.067523 0.373101 -1.035392
2008-12-18 08:35:51 51°14.121 2°55.425 -999 0.067523 0.373101 -1.035392
2008-12-18 08:35:57 51°14.134 2°55.414 -999 0.067523 0.373108 -1.035392
2008-12-18 08:36:01 51°14.142 2°55.406 -999 0.067523 0.373114 -1.035392
2008-12-18 08:36:06 51°14.153 2°55.396 -999 0.067523 0.373114 -1.035392
2008-12-18 08:36:11 51°14.164 2°55.385 -999 0.067523 0.373114 -1.035392
2008-12-18 08:36:17 51°14.176 2°55.372 -999 0.067523 0.373121 -1.035392
2008-12-18 08:36:22 51°14.187 2°55.36 -999 0.067523 0.373121 -1.035392
2008-12-18 08:36:26 51°14.195 2°55.351 -999 0.067523 0.373114 -1.035392
2008-12-18 08:36:32 51°14.207 2°55.335 -999 0.067523 0.373114 -1.035392
2008-12-18 08:36:37 51°14.217 2°55.322 -999 0.067523 0.373114 -1.035392
2008-12-18 08:36:41 51°14.224 2°55.311 -999 0.067523 0.373114 -1.035392
2008-12-18 08:36:46 51°14.234 2°55.297 -999 0.067523 0.373114 -1.035392
2008-12-18 08:36:52 51°14.245 2°55.28 -999 0.067523 0.373114 -1.035392
2008-12-18 08:36:57 51°14.255 2°55.265 -999 0.067523 0.373114 -1.035392
2008-12-18 08:37:01 51°14.262 2°55.253 -999 0.067523 0.373114 -1.070216
2008-12-18 08:37:06 51°14.271 2°55.238 -999 0.067523 0.373114 -1.035392
2008-12-18 08:37:12 51°14.282 2°55.22 -999 0.067523 0.373114 -1.035392
2008-12-18 08:37:17 51°14.292 2°55.204 -999 0.067523 0.373114 -1.035392
2008-12-18 08:37:21 51°14.3 2°55.192 -999 0.067523 0.373114 -1.035392
2008-12-18 08:37:26 51°14.309 2°55.177 -999 0.067523 0.373114 -1.035392
2008-12-18 08:37:31 51°14.319 2°55.161 -999 0.067523 0.373114 -1.035392
2008-12-18 08:37:37 51°14.33 2°55.143 -999 0.067523 0.373114 -1.035392
2008-12-18 08:37:41 51°14.338 2°55.131 -999 0.067523 0.373114 -1.035392
2008-12-18 08:37:46 51°14.347 2°55.115 -999 0.067523 0.373114 -1.035392
2008-12-18 08:37:51 51°14.357 2°55.1 -999 0.067523 0.373114 -1.035392
2008-12-18 08:37:57 51°14.367 2°55.08 -999 0.067523 0.373121 -1.035392
2008-12-18 08:38:01 51°14.374 2°55.067 -999 0.067523 0.373121 -1.035392
2008-12-18 08:38:06 51°14.383 2°55.05 -999 0.067523 0.373128 -1.035392
2008-12-18 08:38:11 51°14.391 2°55.034 -999 0.067523 0.373128 -1.035392
2008-12-18 08:38:17 51°14.401 2°55.013 -999 0.067523 0.373121 -1.035392
2008-12-18 08:38:21 51°14.408 2°54.998 -999 0.067523 0.373121 -1.035392
2008-12-18 08:38:26 51°14.416 2°54.979 -999 0.067523 0.373128 -1.035392
2008-12-18 08:38:31 51°14.424 2°54.96 -999 0.067523 0.373121 -1.035392
2008-12-18 08:38:37 51°14.435 2°54.936 -999 0.067523 0.373121 -1.035392
2008-12-18 08:38:41 51°14.442 2°54.92 -999 0.067523 0.373121 -1.035392
2008-12-18 08:38:46 51°14.45 2°54.9 -999 0.067523 0.373128 -1.035392
2008-12-18 08:38:52 51°14.461 2°54.874 -999 0.067523 0.373128 -1.035392
2008-12-18 08:38:57 51°14.469 2°54.852 -999 0.067523 0.373134 -1.035392
2008-12-18 08:39:01 51°14.476 2°54.835 -999 0.067523 0.373134 -1.035392
2008-12-18 08:39:07 51°14.487 2°54.808 -999 0.067523 0.373134 -1.035392
2008-12-18 08:39:12 51°14.495 2°54.786 -999 0.067523 0.373134 -1.035392
2008-12-18 08:39:17 51°14.502 2°54.762 -999 0.067523 0.373148 -1.035392
2008-12-18 08:39:21 51°14.507 2°54.743 -999 0.067523 0.373148 -1.035392
2008-12-18 08:39:26 51°14.512 2°54.718 -999 0.067523 0.373155 -1.035392
2008-12-18 08:39:31 51°14.515 2°54.693 -999 0.067523 0.373161 -1.035392
2008-12-18 08:39:37 51°14.517 2°54.662 -999 0.067523 0.373161 -1.035392
2008-12-18 08:39:41 51°14.517 2°54.641 -999 0.067523 0.373161 -1.035392
2008-12-18 08:39:46 51°14.516 2°54.616 -999 0.067523 0.373161 -1.035392
2008-12-18 08:39:51 51°14.513 2°54.591 -999 0.067523 0.373161 -1.035392
2008-12-18 08:39:57 51°14.508 2°54.561 -999 0.067523 0.373161 -1.035392
2008-12-18 08:40:01 51°14.504 2°54.542 -999 0.067523 0.373161 -1.035392
2008-12-18 08:40:06 51°14.499 2°54.516 -999 0.067523 0.373148 -1.070216
2008-12-18 08:40:11 51°14.494 2°54.491 -999 0.067523 0.373141 -1.070216
2008-12-18 08:40:17 51°14.489 2°54.46 -999 0.067523 0.373141 -1.035392
2008-12-18 08:40:21 51°14.484 2°54.44 -999 0.067523 0.373141 -1.035392
2008-12-18 08:40:26 51°14.478 2°54.414 -999 0.067523 0.373141 -1.035392
2008-12-18 08:40:32 51°14.471 2°54.384 -999 0.067523 0.373148 -1.035392
2008-12-18 08:40:37 51°14.464 2°54.36 -999 0.067523 0.373155 -1.035392
2008-12-18 08:40:41 51°14.458 2°54.34 -999 0.067523 0.373161 -1.035392
2008-12-18 08:40:46 51°14.45 2°54.316 -999 0.067523 0.373161 -1.035392
2008-12-18 08:40:52 51°14.44 2°54.287 -999 0.067523 0.373161 -1.035392
2008-12-18 08:40:57 51°14.433 2°54.263 -999 0.067523 0.373161 -1.035392
2008-12-18 08:41:02 51°14.424 2°54.241 -999 0.067523 0.373168 -1.035392
2008-12-18 08:41:06 51°14.417 2°54.222 -999 0.067523 0.373161 -1.035392
2008-12-18 08:41:12 51°14.407 2°54.194 -999 0.067523 0.373161 -1.035392
2008-12-18 08:41:17 51°14.398 2°54.171 -999 0.067523 0.373161 -1.035392
2008-12-18 08:41:21 51°14.391 2°54.153 -999 0.067523 0.373161 -1.035392
2008-12-18 08:41:27 51°14.381 2°54.125 -999 0.067523 0.373155 -1.035392
2008-12-18 08:41:32 51°14.372 2°54.102 -999 0.067523 0.373161 -1.070216
2008-12-18 08:41:37 51°14.363 2°54.078 -999 0.067523 0.373161 -1.035392
2008-12-18 08:41:41 51°14.356 2°54.06 -999 0.067523 0.373168 -1.035392
2008-12-18 08:41:46 51°14.347 2°54.036 -999 0.067523 0.373175 -1.035392
2008-12-18 08:41:52 51°14.337 2°54.008 -999 0.067523 0.373175 -1.035392
2008-12-18 08:41:57 51°14.329 2°53.984 -999 0.067523 0.373175 -1.035392
2008-12-18 08:42:01 51°14.322 2°53.965 -999 0.067523 0.373181 -1.035392
2008-12-18 08:42:06 51°14.314 2°53.942 -999 0.067523 0.373188 -1.035392
2008-12-18 08:42:11 51°14.306 2°53.918 -999 0.067523 0.373188 -1.035392
2008-12-18 08:42:17 51°14.296 2°53.889 -999 0.067523 0.373188 -1.035392
2008-12-18 08:42:21 51°14.29 2°53.869 -999 0.067523 0.373188 -1.035392
2008-12-18 08:42:26 51°14.282 2°53.845 -999 0.067523 0.373195 -1.035392
2008-12-18 08:42:31 51°14.274 2°53.821 -999 0.067523 0.373188 -1.035392
2008-12-18 08:42:37 51°14.265 2°53.792 -999 0.067523 0.373188 -1.035392
2008-12-18 08:42:42 51°14.257 2°53.768 -999 0.067523 0.373188 -1.035392
2008-12-18 08:42:46 51°14.25 2°53.749 -999 0.067523 0.373188 -1.035392
2008-12-18 08:42:52 51°14.241 2°53.72 -999 0.067523 0.373188 -1.035392
2008-12-18 08:42:57 51°14.233 2°53.696 -999 0.067523 0.373188 -1.035392
2008-12-18 08:43:02 51°14.225 2°53.672 -999 0.067523 0.373195 -1.035392
2008-12-18 08:43:06 51°14.219 2°53.652 -999 0.067523 0.373195 -1.035392
2008-12-18 08:43:12 51°14.21 2°53.624 -999 0.067523 0.373201 -1.035392
2008-12-18 08:43:17 51°14.202 2°53.6 -999 0.067523 0.373208 -1.035392
2008-12-18 08:43:21 51°14.195 2°53.58 -999 0.067523 0.373208 -1.035392
2008-12-18 08:43:26 51°14.187 2°53.556 -999 0.067523 0.373215 -1.035392
2008-12-18 08:43:32 51°14.178 2°53.527 -999 0.067523 0.373215 -1.035392
2008-12-18 08:43:37 51°14.17 2°53.503 -999 0.067523 0.373215 -1.035392
2008-12-18 08:43:41 51°14.164 2°53.484 -999 0.067523 0.373215 -1.035392
2008-12-18 08:43:47 51°14.154 2°53.456 -999 0.067523 0.373222 -1.035392
2008-12-18 08:43:52 51°14.146 2°53.431 -999 0.067523 0.373222 -1.035392
2008-12-18 08:43:57 51°14.138 2°53.408 -999 0.067523 0.373222 -1.035392
2008-12-18 08:44:01 51°14.132 2°53.388 -999 0.067523 0.373222 -1.035392
2008-12-18 08:44:06 51°14.124 2°53.364 -999 0.067523 0.373222 -1.035392
2008-12-18 08:44:11 51°14.116 2°53.341 -999 0.067523 0.373228 -1.035392
2008-12-18 08:44:17 51°14.106 2°53.312 -999 0.067523 0.373235 -1.035392
2008-12-18 08:44:21 51°14.1 2°53.293 -999 0.067523 0.373235 -1.035392
2008-12-18 08:44:26 51°14.092 2°53.269 -999 0.067523 0.373242 -1.035392
2008-12-18 08:44:32 51°14.083 2°53.241 -999 0.067523 0.373242 -1.035392
2008-12-18 08:44:37 51°14.074 2°53.217 -999 0.067523 0.373248 -1.035392
2008-12-18 08:44:41 51°14.069 2°53.198 -999 0.067523 0.373255 -1.035392
2008-12-18 08:44:46 51°14.06 2°53.174 -999 0.067523 0.373262 -1.035392
2008-12-18 08:44:51 51°14.052 2°53.151 -999 0.067523 0.373262 -1.035392
2008-12-18 08:44:57 51°14.043 2°53.122 -999 0.067523 0.373262 -1.035392
2008-12-18 08:45:02 51°14.034 2°53.099 -999 0.067523 0.373268 -1.035392
2008-12-18 08:45:06 51°14.028 2°53.079 -999 0.067523 0.373268 -1.035392
2008-12-18 08:45:12 51°14.018 2°53.052 -999 0.067523 0.373275 -1.035392
2008-12-18 08:45:17 51°14.009 2°53.028 -999 0.067523 0.373275 -1.035392
2008-12-18 08:45:22 51°14.001 2°53.004 -999 0.067523 0.373275 -1.035392
2008-12-18 08:45:26 51°13.995 2°52.985 -999 0.067523 0.373275 -1.035392
2008-12-18 08:45:32 51°13.985 2°52.956 -999 0.067523 0.373282 -1.035392
2008-12-18 08:45:37 51°13.977 2°52.932 -999 0.067523 0.373289 -1.035392
2008-12-18 08:45:41 51°13.971 2°52.913 -999 0.067523 0.373289 -1.035392
2008-12-18 08:45:46 51°13.962 2°52.889 -999 0.067523 0.373295 -1.035392
2008-12-18 08:45:52 51°13.953 2°52.86 -999 0.067523 0.373295 -1.035392
2008-12-18 08:45:57 51°13.944 2°52.836 -999 0.067523 0.373295 -1.035392
2008-12-18 08:46:01 51°13.938 2°52.817 -999 0.067523 0.373302 -1.035392
2008-12-18 08:46:06 51°13.93 2°52.793 -999 0.067523 0.373309 -1.035392
2008-12-18 08:46:12 51°13.92 2°52.764 -999 0.067523 0.373302 -1.070216
2008-12-18 08:46:17 51°13.912 2°52.739 -999 0.067523 0.373315 -1.070216
2008-12-18 08:46:21 51°13.905 2°52.72 -999 0.067523 0.373315 -1.070216
2008-12-18 08:46:26 51°13.897 2°52.695 -999 0.067523 0.373309 -1.035392
2008-12-18 08:46:32 51°13.887 2°52.666 -999 0.067523 0.373315 -1.035392
2008-12-18 08:46:37 51°13.879 2°52.641 -999 0.067523 0.373322 -1.035392
2008-12-18 08:46:41 51°13.872 2°52.621 -999 0.067523 0.373322 -1.035392
2008-12-18 08:46:46 51°13.864 2°52.596 -999 0.067523 0.373322 -1.035392
2008-12-18 08:46:51 51°13.855 2°52.572 -999 0.067523 0.373322 -1.035392
2008-12-18 08:46:57 51°13.845 2°52.542 -999 0.067523 0.373329 -1.035392
2008-12-18 08:47:01 51°13.839 2°52.522 -999 0.067523 0.373329 -1.035392
2008-12-18 08:47:06 51°13.83 2°52.496 -999 0.067523 0.373329 -1.035392
2008-12-18 08:47:11 51°13.822 2°52.472 -999 0.067523 0.373335 -1.035392
2008-12-18 08:47:17 51°13.812 2°52.442 -999 0.067523 0.373335 -1.035392
2008-12-18 08:47:21 51°13.806 2°52.422 -999 0.067523 0.373335 -1.035392
2008-12-18 08:47:26 51°13.797 2°52.397 -999 0.067523 0.373342 -1.035392
2008-12-18 08:47:31 51°13.789 2°52.372 -999 0.067523 0.373342 -1.035392
2008-12-18 08:47:37 51°13.779 2°52.342 -999 0.067523 0.373349 -1.035392
2008-12-18 08:47:42 51°13.771 2°52.317 -999 0.067523 0.373349 -1.035392
2008-12-18 08:47:46 51°13.765 2°52.297 -999 0.067523 0.373356 -1.035392
2008-12-18 08:47:52 51°13.755 2°52.267 -999 0.067523 0.373356 -1.035392
2008-12-18 08:47:57 51°13.747 2°52.242 -999 0.067523 0.373356 -1.035392
2008-12-18 08:48:01 51°13.74 2°52.222 -999 0.067523 0.373356 -1.035392
2008-12-18 08:48:06 51°13.732 2°52.197 -999 0.067523 0.373356 -1.035392
2008-12-18 08:48:12 51°13.722 2°52.167 -999 0.067523 0.373362 -1.035392
2008-12-18 08:48:17 51°13.714 2°52.142 -999 0.067523 0.373362 -1.035392
2008-12-18 08:48:21 51°13.707 2°52.122 -999 0.067523 0.373362 -1.035392
2008-12-18 08:48:26 51°13.699 2°52.097 -999 0.067523 0.373369 -1.035392
2008-12-18 08:48:32 51°13.689 2°52.067 -999 0.067523 0.373369 -1.035392
2008-12-18 08:48:37 51°13.68 2°52.042 -999 0.067523 0.373369 -1.035392
2008-12-18 08:48:41 51°13.674 2°52.022 -999 0.067523 0.373362 -1.035392
2008-12-18 08:48:46 51°13.666 2°51.998 -999 0.067523 0.373369 -1.035392
2008-12-18 08:48:52 51°13.656 2°51.968 -999 0.067523 0.373369 -1.035392
2008-12-18 08:48:57 51°13.648 2°51.944 -999 0.067523 0.373376 -1.035392
2008-12-18 08:49:01 51°13.642 2°51.926 -999 0.067524 0.373382 -1.035392
2008-12-18 08:49:06 51°13.635 2°51.903 -999 0.067524 0.373382 -1.035392
2008-12-18 08:49:11 51°13.627 2°51.881 -999 0.067524 0.373382 -1.035392
2008-12-18 08:49:17 51°13.619 2°51.856 -999 0.067524 0.373389 -1.035392
2008-12-18 08:49:22 51°13.612 2°51.835 -999 0.067524 0.373389 -1.035392
2008-12-18 08:49:26 51°13.607 2°51.819 -999 0.067524 0.373389 -1.035392
2008-12-18 08:49:32 51°13.599 2°51.796 -999 0.067524 0.373389 -1.035392
2008-12-18 08:49:37 51°13.592 2°51.777 -999 0.067524 0.373396 -1.035392
2008-12-18 08:49:41 51°13.587 2°51.761 -999 0.067524 0.373389 -1.035392
2008-12-18 08:49:46 51°13.58 2°51.743 -999 0.067524 0.373396 -1.035392
2008-12-18 08:49:52 51°13.572 2°51.72 -999 0.067524 0.373396 -1.035392
2008-12-18 08:49:57 51°13.565 2°51.702 -999 0.067524 0.373396 -1.035392
2008-12-18 08:50:01 51°13.56 2°51.687 -999 0.067524 0.373396 -1.035392
2008-12-18 08:50:06 51°13.554 2°51.669 -999 0.067524 0.373396 -1.035392
2008-12-18 08:50:12 51°13.546 2°51.648 -999 0.067524 0.373396 -1.035392
2008-12-18 08:50:17 51°13.539 2°51.63 -999 0.067524 0.373402 -1.035392
2008-12-18 08:50:21 51°13.535 2°51.616 -999 0.067524 0.373402 -1.035392
2008-12-18 08:50:27 51°13.528 2°51.597 -999 0.067524 0.373402 -1.035392
2008-12-18 08:50:32 51°13.523 2°51.582 -999 0.067524 0.373409 -1.035392
2008-12-18 08:50:37 51°13.518 2°51.569 -999 0.067524 0.373409 -1.035392
2008-12-18 08:50:41 51°13.515 2°51.558 -999 0.067524 0.373416 -1.035392
2008-12-18 08:50:47 51°13.509 2°51.543 -999 0.067524 0.373423 -1.035392
2008-12-18 08:50:52 51°13.505 2°51.531 -999 0.067524 0.373423 -1.035392
2008-12-18 08:50:57 51°13.501 2°51.521 -999 0.067524 0.373423 -1.035392
2008-12-18 08:51:01 51°13.498 2°51.513 -999 0.067524 0.373423 -1.035392
2008-12-18 08:51:06 51°13.494 2°51.503 -999 0.067524 0.373429 -1.035392
2008-12-18 08:51:11 51°13.491 2°51.495 -999 0.067524 0.373423 -1.035392
2008-12-18 08:51:17 51°13.486 2°51.485 -999 0.067524 0.373429 -1.035392
2008-12-18 08:51:21 51°13.484 2°51.48 -999 0.067524 0.373429 -1.035392
2008-12-18 08:51:26 51°13.48 2°51.474 -999 0.067524 0.373429 -1.035392
2008-12-18 08:51:31 51°13.477 2°51.468 -999 0.067524 0.373429 -1.035392
2008-12-18 08:51:37 51°13.474 2°51.463 -999 0.067524 0.373429 -1.035392
2008-12-18 08:51:41 51°13.473 2°51.46 -999 0.067524 0.373436 -1.035392
2008-12-18 08:51:46 51°13.47 2°51.457 -999 0.067524 0.373436 -1.035392
2008-12-18 08:51:52 51°13.469 2°51.454 -999 0.067524 0.373436 -1.035392
2008-12-18 08:51:57 51°13.468 2°51.453 -999 0.067524 0.373436 -1.035392
2008-12-18 08:52:01 51°13.467 2°51.451 -999 0.067524 0.373436 -1.035392
2008-12-18 08:52:06 51°13.466 2°51.45 -999 0.067524 0.373436 -1.035392
2008-12-18 08:52:11 51°13.466 2°51.448 -999 0.067524 0.373436 -1.035392
2008-12-18 08:52:17 51°13.465 2°51.446 -999 0.067524 0.373429 -1.035392
2008-12-18 08:52:22 51°13.464 2°51.445 -999 0.067524 0.373429 -1.035392
2008-12-18 08:52:26 51°13.464 2°51.444 -999 0.067524 0.373429 -1.035392
2008-12-18 08:52:32 51°13.463 2°51.442 -999 0.067524 0.373429 -1.035392
2008-12-18 08:52:37 51°13.462 2°51.441 -999 0.067524 0.373429 -1.035392
2008-12-18 08:52:41 51°13.462 2°51.44 -999 0.067524 0.373429 -1.035392
2008-12-18 08:52:46 51°13.461 2°51.439 -999 0.067524 0.373429 -1.035392
2008-12-18 08:52:52 51°13.461 2°51.438 -999 0.067524 0.373429 -1.035392
2008-12-18 08:52:57 51°13.461 2°51.437 -999 0.067524 0.373436 -1.035392
2008-12-18 08:53:01 51°13.46 2°51.437 -999 0.067524 0.373436 -1.035392
2008-12-18 08:53:06 51°13.46 2°51.436 -999 0.067524 0.373436 -1.035392
2008-12-18 08:53:12 51°13.459 2°51.435 -999 0.067524 0.373443 -1.035392
2008-12-18 08:53:17 51°13.459 2°51.434 -999 0.067524 0.373443 -1.035392
2008-12-18 08:53:21 51°13.459 2°51.433 -999 0.067524 0.373443 -1.035392
2008-12-18 08:53:26 51°13.458 2°51.432 -999 0.067524 0.373443 -1.035392
2008-12-18 08:53:31 51°13.458 2°51.432 -999 0.067524 0.373443 -1.035392
2008-12-18 08:53:37 51°13.458 2°51.431 -999 0.067524 0.373443 -1.035392
2008-12-18 08:53:41 51°13.458 2°51.43 -999 0.067524 0.373443 -1.035392
2008-12-18 08:53:46 51°13.457 2°51.43 -999 0.067524 0.373449 -1.035392
2008-12-18 08:53:52 51°13.457 2°51.429 -999 0.067524 0.373449 -1.035392
2008-12-18 08:53:57 51°13.457 2°51.428 -999 0.067524 0.373449 -1.035392
2008-12-18 08:54:01 51°13.457 2°51.428 -999 0.067524 0.373456 -1.035392
2008-12-18 08:54:06 51°13.457 2°51.427 -999 0.067524 0.373449 -1.035392
2008-12-18 08:54:11 51°13.457 2°51.427 -999 0.067524 0.373456 -1.035392
2008-12-18 08:54:17 51°13.457 2°51.426 -999 0.067524 0.373463 -1.035392
2008-12-18 08:54:22 51°13.457 2°51.426 -999 0.067524 0.373463 -1.035392
2008-12-18 08:54:26 51°13.457 2°51.425 -999 0.067524 0.373463 -1.035392
2008-12-18 08:54:32 51°13.456 2°51.424 -999 0.067524 0.373463 -1.035392
2008-12-18 08:54:37 51°13.456 2°51.424 -999 0.067524 0.373463 -1.035392
2008-12-18 08:54:41 51°13.456 2°51.423 -999 0.067524 0.373463 -1.035392
2008-12-18 08:54:47 51°13.456 2°51.423 -999 0.067524 0.373463 -1.035392
2008-12-18 08:54:52 51°13.456 2°51.422 -999 0.067524 0.373463 -1.035392
2008-12-18 08:54:57 51°13.456 2°51.421 -999 0.067524 0.373463 -1.035392
2008-12-18 08:55:01 51°13.456 2°51.421 -999 0.067524 0.373463 -1.035392
2008-12-18 08:55:06 51°13.456 2°51.42 -999 0.067524 0.373463 -1.035392
2008-12-18 08:55:12 51°13.456 2°51.42 -999 0.067524 0.37347 -1.035392
2008-12-18 08:55:17 51°13.456 2°51.419 -999 0.067524 0.37347 -1.035392
2008-12-18 08:55:21 51°13.456 2°51.419 -999 0.067524 0.37347 -1.035392
2008-12-18 08:55:26 51°13.456 2°51.418 -999 0.067524 0.37347 -1.035392
2008-12-18 08:55:32 51°13.456 2°51.417 -999 0.067524 0.37347 -1.035392
2008-12-18 08:55:37 51°13.456 2°51.417 -999 0.067524 0.373476 -1.035392
2008-12-18 08:55:41 51°13.456 2°51.416 -999 0.067524 0.373476 -1.035392
2008-12-18 08:55:46 51°13.456 2°51.416 -999 0.067524 0.373476 -1.035392
2008-12-18 08:55:51 51°13.456 2°51.415 -999 0.067524 0.373476 -1.035392
2008-12-18 08:55:57 51°13.456 2°51.414 -999 0.067524 0.373476 -1.035392
2008-12-18 08:56:01 51°13.457 2°51.414 -999 0.067524 0.373476 -1.035392
2008-12-18 08:56:06 51°13.457 2°51.413 -999 0.067524 0.373476 -1.035392
2008-12-18 08:56:11 51°13.457 2°51.413 -999 0.067524 0.373476 -1.035392
2008-12-18 08:56:17 51°13.457 2°51.412 -999 0.067524 0.373476 -1.035392
2008-12-18 08:56:21 51°13.457 2°51.411 -999 0.067524 0.373476 -1.035392
2008-12-18 08:56:26 51°13.457 2°51.411 -999 0.067524 0.373483 -1.035392
2008-12-18 08:56:31 51°13.457 2°51.411 -999 0.067524 0.373483 -1.035392
2008-12-18 08:56:37 51°13.457 2°51.41 -999 0.067524 0.373483 -1.035392
2008-12-18 08:56:41 51°13.457 2°51.409 -999 0.067524 0.373483 -1.035392
2008-12-18 08:56:46 51°13.457 2°51.409 -999 0.067524 0.373483 -1.035392
2008-12-18 08:56:52 51°13.457 2°51.408 -999 0.067524 0.373483 -1.035392
2008-12-18 08:56:57 51°13.457 2°51.408 -999 0.067524 0.37349 -1.035392
2008-12-18 08:57:01 51°13.457 2°51.407 -999 0.067524 0.37349 -1.035392
2008-12-18 08:57:07 51°13.456 2°51.406 -999 0.067524 0.37349 -1.035392
2008-12-18 08:57:12 51°13.456 2°51.406 -999 0.067524 0.37349 -1.035392
2008-12-18 08:57:17 51°13.457 2°51.405 -999 0.067524 0.37349 -1.035392
2008-12-18 08:57:21 51°13.457 2°51.405 -999 0.067524 0.37349 -1.035392
2008-12-18 08:57:26 51°13.457 2°51.404 -999 0.067524 0.373496 -1.035392
2008-12-18 08:57:32 51°13.457 2°51.404 -999 0.067524 0.373496 -1.035392
2008-12-18 08:57:37 51°13.457 2°51.403 -999 0.067524 0.373496 -1.035392
2008-12-18 08:57:41 51°13.457 2°51.403 -999 0.067524 0.373496 -1.035392
2008-12-18 08:57:46 51°13.458 2°51.402 -999 0.067524 0.373503 -1.035392
2008-12-18 08:57:51 51°13.458 2°51.402 -999 0.067524 0.373503 -1.035392
2008-12-18 08:57:57 51°13.458 2°51.401 -999 0.067524 0.373503 -1.035392
2008-12-18 08:58:01 51°13.458 2°51.401 -999 0.067524 0.373503 -1.035392
2008-12-18 08:58:06 51°13.458 2°51.4 -999 0.067524 0.37351 -1.035392
2008-12-18 08:58:11 51°13.458 2°51.4 -999 0.067524 0.37351 -1.035392
2008-12-18 08:58:17 51°13.458 2°51.399 -999 0.067524 0.37351 -1.035392
2008-12-18 08:58:21 51°13.458 2°51.399 -999 0.067524 0.37351 -1.035392
2008-12-18 08:58:26 51°13.458 2°51.398 -999 0.067524 0.37351 -1.035392
2008-12-18 08:58:31 51°13.458 2°51.398 -999 0.067524 0.373517 -1.035392
2008-12-18 08:58:37 51°13.459 2°51.397 -999 0.067524 0.37351 -1.035392
2008-12-18 08:58:42 51°13.459 2°51.397 -999 0.067524 0.37351 -1.035392
2008-12-18 08:58:46 51°13.459 2°51.396 -999 0.067524 0.373517 -1.035392
2008-12-18 08:58:52 51°13.459 2°51.396 -999 0.067524 0.373517 -1.035392
2008-12-18 08:58:57 51°13.459 2°51.395 -999 0.067524 0.373517 -1.035392
2008-12-18 08:59:02 51°13.459 2°51.394 -999 0.067524 0.373523 -1.035392
2008-12-18 08:59:06 51°13.459 2°51.394 -999 0.067524 0.373517 -1.035392
2008-12-18 08:59:12 51°13.459 2°51.393 -999 0.067626 0.374104 -1.035392
2008-12-18 08:59:17 51°13.459 2°51.393 -999 0.067524 0.373523 -1.035392
2008-12-18 08:59:21 51°13.459 2°51.393 -999 0.067524 0.373523 -1.035392
2008-12-18 08:59:26 51°13.459 2°51.393 -999 0.067524 0.373523 -1.035392
2008-12-18 08:59:32 51°13.458 2°51.395 -999 0.067524 0.373523 -1.035392
2008-12-18 08:59:37 51°13.458 2°51.397 -999 0.067626 0.374111 -1.035392
2008-12-18 08:59:41 51°13.458 2°51.4 -999 0.067524 0.373523 -1.035392
2008-12-18 08:59:46 51°13.458 2°51.405 -999 0.067524 0.373523 -1.035392
2008-12-18 08:59:52 51°13.458 2°51.412 -999 0.067524 0.373523 -1.035392
2008-12-18 08:59:57 51°13.458 2°51.42 -999 0.067626 0.374111 -1.035392
2008-12-18 09:00:01 51°13.459 2°51.427 -999 0.067626 0.374111 -1.035392
2008-12-18 09:00:06 51°13.46 2°51.436 -999 0.067524 0.373523 -1.035392
2008-12-18 09:00:12 51°13.463 2°51.448 -999 0.067626 0.374118 -1.035392
2008-12-18 09:00:17 51°13.466 2°51.458 -999 0.067524 0.37353 -1.035392
2008-12-18 09:00:21 51°13.468 2°51.466 -999 0.067524 0.37353 -1.035392
2008-12-18 09:00:26 51°13.473 2°51.477 -999 0.067524 0.373537 -1.035392
2008-12-18 09:00:31 51°13.476 2°51.487 -999 0.067626 0.374125 -1.035392
2008-12-18 09:00:37 51°13.481 2°51.498 -999 0.067626 0.374125 -1.035392
2008-12-18 09:00:41 51°13.483 2°51.505 -999 0.067626 0.374118 -1.035392
2008-12-18 09:00:46 51°13.487 2°51.514 -999 0.067626 0.374125 -1.035392
2008-12-18 09:00:51 51°13.49 2°51.521 -999 0.067626 0.374125 -1.035392
2008-12-18 09:00:57 51°13.494 2°51.53 -999 0.067626 0.374125 -1.035392
2008-12-18 09:01:02 51°13.497 2°51.537 -999 0.067626 0.374125 -1.035392
2008-12-18 09:01:06 51°13.499 2°51.541 -999 0.067626 0.374131 -1.035392
2008-12-18 09:01:12 51°13.503 2°51.547 -999 0.067626 0.374131 -1.035392
2008-12-18 09:01:17 51°13.506 2°51.551 -999 0.067626 0.374131 -1.035392
2008-12-18 09:01:21 51°13.508 2°51.554 -999 0.067626 0.374131 -1.035392
2008-12-18 09:01:26 51°13.51 2°51.557 -999 0.067626 0.374131 -1.035392
2008-12-18 09:01:32 51°13.513 2°51.559 -999 0.067626 0.374131 -1.035392
2008-12-18 09:01:37 51°13.515 2°51.56 -999 0.067626 0.374138 -1.035392
2008-12-18 09:01:41 51°13.517 2°51.56 -999 0.067626 0.374138 -1.035392
2008-12-18 09:01:46 51°13.518 2°51.56 -999 0.067626 0.374138 -1.035392
2008-12-18 09:01:52 51°13.52 2°51.56 -999 0.067626 0.374138 -1.035392
2008-12-18 09:01:57 51°13.521 2°51.559 -999 0.067626 0.374138 -1.035392
2008-12-18 09:02:01 51°13.521 2°51.559 -999 0.067626 0.374138 -1.035392
2008-12-18 09:02:06 51°13.522 2°51.558 -999 0.067626 0.374138 -1.035392
2008-12-18 09:02:12 51°13.523 2°51.557 -999 0.067626 0.374138 -1.035392
2008-12-18 09:02:17 51°13.524 2°51.556 -999 0.067626 0.374138 -1.035392
2008-12-18 09:02:21 51°13.524 2°51.555 -999 0.067626 0.374138 -1.035392
2008-12-18 09:02:26 51°13.525 2°51.554 -999 0.067626 0.374138 -1.035392
2008-12-18 09:02:31 51°13.526 2°51.554 -999 0.067626 0.374138 -1.035392
2008-12-18 09:02:37 51°13.527 2°51.552 -999 0.067626 0.374138 -1.035392
2008-12-18 09:02:41 51°13.527 2°51.551 -999 0.067626 0.374131 -1.035392
2008-12-18 09:02:46 51°13.528 2°51.55 -999 0.067626 0.374138 -1.035392
2008-12-18 09:02:51 51°13.529 2°51.549 -999 0.067626 0.374138 -1.035392
2008-12-18 09:02:57 51°13.53 2°51.547 -999 0.067626 0.374138 -1.035392
2008-12-18 09:03:02 51°13.53 2°51.546 -999 0.067626 0.374138 -1.035392
2008-12-18 09:03:06 51°13.531 2°51.545 -999 0.067626 0.374138 -1.035392
2008-12-18 09:03:12 51°13.532 2°51.544 -999 0.067626 0.374145 -1.035392
2008-12-18 09:03:17 51°13.533 2°51.543 -999 0.067626 0.374151 -1.035392
2008-12-18 09:03:22 51°13.533 2°51.542 -999 0.067626 0.374151 -1.035392
2008-12-18 09:03:26 51°13.534 2°51.541 -999 0.067626 0.374151 -1.035392
2008-12-18 09:03:32 51°13.535 2°51.539 -999 0.067626 0.374158 -1.035392
2008-12-18 09:03:37 51°13.535 2°51.538 -999 0.067626 0.374165 -1.035392
2008-12-18 09:03:41 51°13.536 2°51.537 -999 0.067626 0.374165 -1.035392
2008-12-18 09:03:46 51°13.537 2°51.536 -999 0.067626 0.374165 -1.035392
2008-12-18 09:03:52 51°13.538 2°51.534 -999 0.067626 0.374165 -1.035392
2008-12-18 09:03:57 51°13.538 2°51.532 -999 0.067626 0.374165 -1.000568
2008-12-18 09:04:01 51°13.539 2°51.531 -999 0.067626 0.374165 -1.035392
2008-12-18 09:04:06 51°13.539 2°51.53 -999 0.067626 0.374172 -1.035392
2008-12-18 09:04:12 51°13.54 2°51.528 -999 0.067626 0.374165 -1.035392
2008-12-18 09:04:17 51°13.541 2°51.527 -999 0.067626 0.374172 -1.035392
2008-12-18 09:04:21 51°13.541 2°51.526 -999 0.067626 0.374172 -1.035392
2008-12-18 09:04:26 51°13.542 2°51.525 -999 0.067626 0.374172 -1.035392
2008-12-18 09:04:31 51°13.543 2°51.523 -999 0.067626 0.374172 -1.035392
2008-12-18 09:04:37 51°13.543 2°51.522 -999 0.067626 0.374172 -1.000568
2008-12-18 09:04:41 51°13.544 2°51.521 -999 0.067626 0.374178 -1.035392
2008-12-18 09:04:46 51°13.545 2°51.519 -999 0.067626 0.374178 -1.035392
2008-12-18 09:04:51 51°13.545 2°51.518 -999 0.067626 0.374178 -1.035392
2008-12-18 09:04:57 51°13.546 2°51.516 -999 0.067626 0.374185 -1.035392
2008-12-18 09:05:01 51°13.546 2°51.515 -999 0.067626 0.374178 -1.035392
2008-12-18 09:05:06 51°13.547 2°51.513 -999 0.067626 0.374185 -1.035392
2008-12-18 09:05:11 51°13.547 2°51.512 -999 0.067626 0.374185 -1.035392
2008-12-18 09:05:17 51°13.548 2°51.51 -999 0.067626 0.374185 -1.000568
2008-12-18 09:05:22 51°13.548 2°51.508 -999 0.067626 0.374185 -1.000568
2008-12-18 09:05:26 51°13.549 2°51.507 -999 0.067626 0.374192 -1.035392
2008-12-18 09:05:32 51°13.549 2°51.506 -999 0.067626 0.374192 -1.035392
2008-12-18 09:05:37 51°13.55 2°51.504 -999 0.067626 0.374192 -1.035392
2008-12-18 09:05:41 51°13.55 2°51.503 -999 0.067626 0.374192 -1.035392
2008-12-18 09:05:46 51°13.551 2°51.501 -999 0.067626 0.374199 -1.035392
2008-12-18 09:05:52 51°13.551 2°51.5 -999 0.067626 0.374199 -1.035392
2008-12-18 09:05:57 51°13.551 2°51.498 -999 0.067626 0.374199 -1.035392
2008-12-18 09:06:01 51°13.552 2°51.497 -999 0.067626 0.374199 -1.035392
2008-12-18 09:06:06 51°13.552 2°51.495 -999 0.067626 0.374199 -1.035392
2008-12-18 09:06:12 51°13.553 2°51.494 -999 0.067626 0.374199 -1.035392
2008-12-18 09:06:17 51°13.554 2°51.492 -999 0.067626 0.374205 -1.035392
2008-12-18 09:06:21 51°13.555 2°51.489 -999 0.067626 0.374205 -1.035392
2008-12-18 09:06:26 51°13.557 2°51.486 -999 0.067626 0.374205 -1.035392
2008-12-18 09:06:32 51°13.561 2°51.481 -999 0.067626 0.374199 -1.035392
2008-12-18 09:06:37 51°13.565 2°51.478 -999 0.067626 0.374199 -1.035392
2008-12-18 09:06:41 51°13.569 2°51.475 -999 0.067626 0.374192 -1.035392
2008-12-18 09:06:46 51°13.574 2°51.474 -999 0.067626 0.374205 -1.035392
2008-12-18 09:06:52 51°13.58 2°51.473 -999 0.067626 0.374205 -1.035392
2008-12-18 09:06:57 51°13.585 2°51.473 -999 0.067626 0.374219 -1.035392
2008-12-18 09:07:01 51°13.59 2°51.474 -999 0.067626 0.374239 -1.035392
2008-12-18 09:07:06 51°13.595 2°51.477 -999 0.067626 0.374252 -1.035392
2008-12-18 09:07:11 51°13.599 2°51.48 -999 0.067626 0.374266 -1.035392
2008-12-18 09:07:17 51°13.604 2°51.487 -999 0.067626 0.374279 -1.035392
2008-12-18 09:07:22 51°13.608 2°51.493 -999 0.067626 0.374279 -1.035392
2008-12-18 09:07:26 51°13.611 2°51.498 -999 0.067626 0.374279 -1.035392
2008-12-18 09:07:32 51°13.615 2°51.507 -999 0.067626 0.374293 -1.035392
2008-12-18 09:07:37 51°13.619 2°51.517 -999 0.067626 0.374293 -1.035392
2008-12-18 09:07:41 51°13.623 2°51.525 -999 0.067626 0.374279 -1.035392
2008-12-18 09:07:46 51°13.628 2°51.538 -999 0.067626 0.374273 -1.035392
2008-12-18 09:07:52 51°13.636 2°51.555 -999 0.067626 0.374273 -1.035392
2008-12-18 09:07:57 51°13.643 2°51.571 -999 0.067626 0.374259 -1.035392
2008-12-18 09:08:01 51°13.649 2°51.585 -999 0.067626 0.374246 -1.035392
2008-12-18 09:08:06 51°13.656 2°51.603 -999 0.067626 0.374239 -1.035392
2008-12-18 09:08:11 51°13.664 2°51.622 -999 0.067626 0.374232 -1.035392
2008-12-18 09:08:17 51°13.674 2°51.645 -999 0.067626 0.374246 -1.035392
2008-12-18 09:08:21 51°13.68 2°51.662 -999 0.067626 0.374246 -1.035392
2008-12-18 09:08:26 51°13.689 2°51.682 -999 0.067626 0.374246 -1.035392
2008-12-18 09:08:32 51°13.698 2°51.708 -999 0.067626 0.374252 -1.035392
2008-12-18 09:08:37 51°13.706 2°51.729 -999 0.067626 0.374259 -1.035392
2008-12-18 09:08:41 51°13.712 2°51.746 -999 0.067626 0.374259 -1.035392
2008-12-18 09:08:47 51°13.72 2°51.773 -999 0.067626 0.374266 -1.035392
2008-12-18 09:08:52 51°13.728 2°51.795 -999 0.067626 0.374266 -1.035392
2008-12-18 09:08:57 51°13.735 2°51.818 -999 0.067626 0.374259 -1.035392
2008-12-18 09:09:01 51°13.741 2°51.836 -999 0.067626 0.374252 -1.035392
2008-12-18 09:09:06 51°13.748 2°51.859 -999 0.067626 0.374252 -1.035392
2008-12-18 09:09:12 51°13.756 2°51.886 -999 0.067626 0.374239 -1.035392
2008-12-18 09:09:17 51°13.764 2°51.909 -999 0.067626 0.374239 -1.035392
2008-12-18 09:09:21 51°13.769 2°51.927 -999 0.067626 0.374239 -1.035392
2008-12-18 09:09:26 51°13.777 2°51.949 -999 0.067626 0.374232 -1.000568
2008-12-18 09:09:31 51°13.784 2°51.972 -999 0.067626 0.374239 -1.035392
2008-12-18 09:09:37 51°13.793 2°51.999 -999 0.067626 0.374239 -1.035392
2008-12-18 09:09:41 51°13.799 2°52.017 -999 0.067626 0.374246 -1.000568
2008-12-18 09:09:46 51°13.806 2°52.039 -999 0.067626 0.374259 -1.035392
2008-12-18 09:09:52 51°13.816 2°52.066 -999 0.067626 0.374259 -1.035392
2008-12-18 09:09:57 51°13.823 2°52.089 -999 0.067626 0.374259 -1.035392
2008-12-18 09:10:01 51°13.829 2°52.106 -999 0.067626 0.374273 -1.035392
2008-12-18 09:10:06 51°13.837 2°52.128 -999 0.067626 0.374273 -1.035392
2008-12-18 09:10:11 51°13.844 2°52.15 -999 0.067626 0.374279 -1.035392
2008-12-18 09:10:17 51°13.854 2°52.176 -999 0.067626 0.374273 -1.035392
2008-12-18 09:10:22 51°13.861 2°52.199 -999 0.067626 0.374273 -1.035392
2008-12-18 09:10:26 51°13.867 2°52.216 -999 0.067626 0.374279 -1.035392
2008-12-18 09:10:32 51°13.876 2°52.243 -999 0.067626 0.374273 -1.000568
2008-12-18 09:10:37 51°13.883 2°52.265 -999 0.067626 0.374273 -1.035392
2008-12-18 09:10:41 51°13.889 2°52.284 -999 0.067626 0.374273 -1.035392
2008-12-18 09:10:46 51°13.896 2°52.306 -999 0.067626 0.374273 -1.035392
2008-12-18 09:10:52 51°13.904 2°52.334 -999 0.067626 0.374273 -1.035392
2008-12-18 09:10:57 51°13.911 2°52.356 -999 0.067626 0.374279 -1.000568
2008-12-18 09:11:01 51°13.916 2°52.375 -999 0.067626 0.374273 -1.035392
2008-12-18 09:11:06 51°13.923 2°52.398 -999 0.067626 0.374273 -1.035392
2008-12-18 09:11:12 51°13.932 2°52.424 -999 0.067626 0.374279 -1.000568
2008-12-18 09:11:17 51°13.938 2°52.447 -999 0.067626 0.374279 -1.000568
2008-12-18 09:11:21 51°13.944 2°52.465 -999 0.067626 0.374279 -1.000568
2008-12-18 09:11:26 51°13.952 2°52.488 -999 0.067626 0.374286 -1.035392
2008-12-18 09:11:32 51°13.96 2°52.514 -999 0.067626 0.374279 -1.035392
2008-12-18 09:11:37 51°13.968 2°52.536 -999 0.067626 0.374293 -1.000568
2008-12-18 09:11:41 51°13.974 2°52.554 -999 0.067626 0.374279 -1.035392
2008-12-18 09:11:46 51°13.981 2°52.576 -999 0.067626 0.374286 -1.000568
2008-12-18 09:11:52 51°13.99 2°52.602 -999 0.067626 0.374286 -1.000568
2008-12-18 09:11:57 51°13.997 2°52.625 -999 0.067626 0.374286 -1.035392
2008-12-18 09:12:01 51°14.003 2°52.642 -999 0.067626 0.374286 -1.000568
2008-12-18 09:12:06 51°14.01 2°52.664 -999 0.067626 0.374286 -1.035392
2008-12-18 09:12:11 51°14.018 2°52.686 -999 0.067626 0.374293 -1.035392
2008-12-18 09:12:17 51°14.027 2°52.713 -999 0.067626 0.374286 -1.000568
2008-12-18 09:12:22 51°14.034 2°52.735 -999 0.067626 0.374286 -1.000568
2008-12-18 09:12:26 51°14.039 2°52.753 -999 0.067626 0.374286 -1.035392
2008-12-18 09:12:32 51°14.048 2°52.78 -999 0.067626 0.374293 -1.035392
2008-12-18 09:12:37 51°14.055 2°52.803 -999 0.067626 0.374293 -1.035392
2008-12-18 09:12:41 51°14.06 2°52.821 -999 0.067626 0.374299 -1.035392
2008-12-18 09:12:47 51°14.068 2°52.849 -999 0.067626 0.374293 -1.000568
2008-12-18 09:12:52 51°14.075 2°52.872 -999 0.067626 0.374293 -1.000568
2008-12-18 09:12:57 51°14.082 2°52.894 -999 0.067626 0.374306 -1.000568
2008-12-18 09:13:01 51°14.088 2°52.912 -999 0.067626 0.374306 -1.035392
2008-12-18 09:13:06 51°14.095 2°52.935 -999 0.067626 0.374306 -1.000568
2008-12-18 09:13:12 51°14.104 2°52.962 -999 0.067626 0.374313 -1.000568
2008-12-18 09:13:17 51°14.111 2°52.984 -999 0.067626 0.374306 -1.035392
2008-12-18 09:13:21 51°14.117 2°53.003 -999 0.067626 0.374306 -1.035392
2008-12-18 09:13:26 51°14.124 2°53.025 -999 0.067626 0.37432 -1.000568
2008-12-18 09:13:32 51°14.133 2°53.051 -999 0.067626 0.374313 -1.035392
2008-12-18 09:13:37 51°14.14 2°53.075 -999 0.067626 0.374313 -1.035392
2008-12-18 09:13:41 51°14.147 2°53.092 -999 0.067626 0.374313 -1.035392
2008-12-18 09:13:46 51°14.153 2°53.115 -999 0.067626 0.37432 -1.000568
2008-12-18 09:13:52 51°14.162 2°53.142 -999 0.067626 0.37432 -1.000568
2008-12-18 09:13:57 51°14.169 2°53.164 -999 0.067626 0.37432 -1.000568
2008-12-18 09:14:01 51°14.175 2°53.182 -999 0.067626 0.374326 -1.035392
2008-12-18 09:14:06 51°14.183 2°53.204 -999 0.067626 0.374326 -1.000568
2008-12-18 09:14:11 51°14.189 2°53.227 -999 0.067626 0.374333 -1.000568
2008-12-18 09:14:17 51°14.198 2°53.253 -999 0.067626 0.374326 -1.035392
2008-12-18 09:14:21 51°14.203 2°53.272 -999 0.067626 0.374326 -1.035392
2008-12-18 09:14:26 51°14.211 2°53.294 -999 0.067626 0.37434 -1.000568
2008-12-18 09:14:31 51°14.218 2°53.316 -999 0.067626 0.374333 -1.035392
2008-12-18 09:14:37 51°14.226 2°53.343 -999 0.067626 0.37434 -1.035392
2008-12-18 09:14:42 51°14.233 2°53.366 -999 0.067626 0.374347 -1.035392
2008-12-18 09:14:46 51°14.239 2°53.383 -999 0.067626 0.374347 -1.035392
2008-12-18 09:14:52 51°14.248 2°53.41 -999 0.067626 0.374347 -1.035392
2008-12-18 09:14:57 51°14.255 2°53.432 -999 0.067626 0.374353 -1.000568
2008-12-18 09:15:02 51°14.262 2°53.454 -999 0.067626 0.37434 -1.035392
2008-12-18 09:15:07 51°14.27 2°53.476 -999 0.067626 0.374353 -1.035392
2008-12-18 09:15:12 51°14.277 2°53.498 -999 0.067626 0.374353 -1.035392
2008-12-18 09:15:17 51°14.285 2°53.519 -999 0.067626 0.37436 -1.035392
2008-12-18 09:15:21 51°14.292 2°53.536 -999 0.067626 0.37436 -1.035392
2008-12-18 09:15:26 51°14.3 2°53.557 -999 0.067626 0.37436 -1.035392
2008-12-18 09:15:32 51°14.31 2°53.583 -999 0.067626 0.37436 -1.035392
2008-12-18 09:15:37 51°14.32 2°53.602 -999 0.067626 0.374367 -1.035392
2008-12-18 09:15:41 51°14.326 2°53.619 -999 0.067626 0.374367 -1.000568
2008-12-18 09:15:46 51°14.337 2°53.637 -999 0.067626 0.374367 -1.035392
2008-12-18 09:15:52 51°14.349 2°53.66 -999 0.067626 0.374367 -1.035392
2008-12-18 09:15:57 51°14.36 2°53.678 -999 0.067626 0.37438 -1.035392
2008-12-18 09:16:01 51°14.368 2°53.693 -999 0.067626 0.374373 -1.035392
2008-12-18 09:16:06 51°14.38 2°53.709 -999 0.067626 0.374387 -1.000568
2008-12-18 09:16:12 51°14.394 2°53.728 -999 0.067626 0.374387 -1.035392
2008-12-18 09:16:17 51°14.406 2°53.744 -999 0.067626 0.374394 -1.035392
2008-12-18 09:16:21 51°14.417 2°53.753 -999 0.067626 0.374394 -1.035392
2008-12-18 09:16:26 51°14.43 2°53.766 -999 0.067626 0.374394 -1.035392
2008-12-18 09:16:31 51°14.445 2°53.775 -999 0.067626 0.3744 -1.035392
2008-12-18 09:16:37 51°14.463 2°53.786 -999 0.067626 0.3744 -1.000568
2008-12-18 09:16:42 51°14.478 2°53.792 -999 0.067626 0.374407 -1.035392
2008-12-18 09:16:46 51°14.49 2°53.797 -999 0.067626 0.374407 -1.000568
2008-12-18 09:16:52 51°14.509 2°53.801 -999 0.067626 0.374407 -1.000568
2008-12-18 09:16:57 51°14.525 2°53.805 -999 0.067626 0.3744 -1.000568
2008-12-18 09:17:02 51°14.541 2°53.805 -999 0.067626 0.374414 -1.000568
2008-12-18 09:17:07 51°14.557 2°53.805 -999 0.067626 0.3744 -0.965744
2008-12-18 09:17:12 51°14.573 2°53.805 -999 0.067626 0.3744 -0.965744
2008-12-18 09:17:17 51°14.589 2°53.803 -999 0.067626 0.3744 -0.93092
2008-12-18 09:17:21 51°14.602 2°53.802 -999 0.067626 0.3744 -0.93092
2008-12-18 09:17:26 51°14.618 2°53.799 -999 0.067626 0.3744 -0.965744
2008-12-18 09:17:32 51°14.637 2°53.794 -999 0.067626 0.374407 -0.965744
2008-12-18 09:17:37 51°14.653 2°53.788 -999 0.067626 0.374407 -0.965744
2008-12-18 09:17:41 51°14.666 2°53.784 -999 0.067626 0.374421 -0.965744
2008-12-18 09:17:46 51°14.682 2°53.775 -999 0.067626 0.374414 -0.965744
2008-12-18 09:17:52 51°14.701 2°53.765 -999 0.067626 0.374414 -0.965744
2008-12-18 09:17:57 51°14.716 2°53.753 -999 0.067626 0.374427 -0.965744
2008-12-18 09:18:01 51°14.728 2°53.744 -999 0.067626 0.374421 -0.93092
2008-12-18 09:18:06 51°14.743 2°53.731 -999 0.067626 0.374427 -0.93092
2008-12-18 09:18:12 51°14.76 2°53.715 -999 0.067626 0.374427 -0.965744
2008-12-18 09:18:17 51°14.774 2°53.699 -999 0.067626 0.374427 -0.93092
2008-12-18 09:18:21 51°14.785 2°53.687 -999 0.067626 0.374427 -0.93092
2008-12-18 09:18:26 51°14.798 2°53.669 -999 0.067626 0.374434 -0.965744
2008-12-18 09:18:32 51°14.813 2°53.647 -999 0.067626 0.374427 -0.965744
2008-12-18 09:18:37 51°14.825 2°53.627 -999 0.067626 0.374441 -0.965744
2008-12-18 09:18:41 51°14.834 2°53.611 -999 0.067626 0.374441 -0.965744
2008-12-18 09:18:46 51°14.844 2°53.589 -999 0.067626 0.374441 -0.965744
2008-12-18 09:18:51 51°14.854 2°53.567 -999 0.067626 0.374441 -0.965744
2008-12-18 09:18:57 51°14.865 2°53.539 -999 0.067626 0.374448 -0.965744
2008-12-18 09:19:02 51°14.873 2°53.515 -999 0.067626 0.374441 -0.965744
2008-12-18 09:19:06 51°14.879 2°53.495 -999 0.067626 0.374448 -0.965744
2008-12-18 09:19:12 51°14.886 2°53.465 -999 0.067626 0.374448 -0.965744
2008-12-18 09:19:17 51°14.893 2°53.439 -999 0.067626 0.374448 -0.965744
2008-12-18 09:19:22 51°14.897 2°53.412 -999 0.067626 0.374448 -0.965744
2008-12-18 09:19:26 51°14.901 2°53.391 -999 0.067626 0.374448 -0.965744
2008-12-18 09:19:32 51°14.905 2°53.359 -999 0.067626 0.374448 -0.965744
2008-12-18 09:19:37 51°14.907 2°53.331 -999 0.067626 0.374454 -0.965744
2008-12-18 09:19:42 51°14.909 2°53.304 -999 0.067626 0.374454 -0.965744
2008-12-18 09:19:46 51°14.91 2°53.282 -999 0.067626 0.374461 -0.965744
2008-12-18 09:19:52 51°14.911 2°53.249 -999 0.067626 0.374461 -0.965744
2008-12-18 09:19:57 51°14.911 2°53.221 -999 0.067626 0.374454 -0.965744
2008-12-18 09:20:01 51°14.91 2°53.199 -999 0.067626 0.374461 -0.965744
2008-12-18 09:20:07 51°14.91 2°53.165 -999 0.067626 0.374454 -0.965744
2008-12-18 09:20:12 51°14.909 2°53.137 -999 0.067626 0.374461 -0.965744
2008-12-18 09:20:17 51°14.908 2°53.109 -999 0.067626 0.374461 -0.965744
2008-12-18 09:20:21 51°14.908 2°53.087 -999 0.067626 0.374461 -0.965744
2008-12-18 09:20:26 51°14.906 2°53.059 -999 0.067626 0.374461 -0.93092
2008-12-18 09:20:32 51°14.904 2°53.026 -999 0.067626 0.374468 -0.965744
2008-12-18 09:20:37 51°14.901 2°52.999 -999 0.067626 0.374474 -0.965744
2008-12-18 09:20:41 51°14.899 2°52.977 -999 0.067626 0.374474 -0.965744
2008-12-18 09:20:46 51°14.896 2°52.949 -999 0.067626 0.374481 -0.965744
2008-12-18 09:20:52 51°14.892 2°52.916 -999 0.067626 0.374481 -0.965744
2008-12-18 09:20:57 51°14.888 2°52.889 -999 0.067626 0.374481 -0.965744
2008-12-18 09:21:02 51°14.884 2°52.862 -999 0.067626 0.374481 -0.965744
2008-12-18 09:21:06 51°14.88 2°52.841 -999 0.067626 0.374481 -0.965744
2008-12-18 09:21:12 51°14.875 2°52.808 -999 0.067626 0.374481 -0.965744
2008-12-18 09:21:17 51°14.871 2°52.781 -999 0.067626 0.374488 -0.965744
2008-12-18 09:21:22 51°14.867 2°52.755 -999 0.067626 0.374488 -0.965744
2008-12-18 09:21:26 51°14.864 2°52.733 -999 0.067626 0.374481 -0.93092
2008-12-18 09:21:32 51°14.859 2°52.701 -999 0.067626 0.374488 -0.965744
2008-12-18 09:21:37 51°14.855 2°52.674 -999 0.067626 0.374488 -0.965744
2008-12-18 09:21:42 51°14.851 2°52.647 -999 0.067626 0.374495 -0.965744
2008-12-18 09:21:46 51°14.848 2°52.625 -999 0.067626 0.374501 -0.965744
2008-12-18 09:21:52 51°14.842 2°52.593 -999 0.067626 0.374501 -0.965744
2008-12-18 09:21:57 51°14.838 2°52.566 -999 0.067626 0.374508 -0.965744
2008-12-18 09:22:01 51°14.835 2°52.545 -999 0.067626 0.374508 -0.965744
2008-12-18 09:22:07 51°14.829 2°52.512 -999 0.067626 0.374508 -0.965744
2008-12-18 09:22:12 51°14.825 2°52.485 -999 0.067626 0.374515 -0.965744
2008-12-18 09:22:17 51°14.82 2°52.458 -999 0.067626 0.374515 -0.965744
2008-12-18 09:22:21 51°14.817 2°52.437 -999 0.067626 0.374515 -0.965744
2008-12-18 09:22:27 51°14.811 2°52.405 -999 0.067626 0.374522 -0.965744
2008-12-18 09:22:32 51°14.805 2°52.378 -999 0.067626 0.374522 -0.965744
2008-12-18 09:22:37 51°14.8 2°52.351 -999 0.067626 0.374522 -0.965744
2008-12-18 09:22:41 51°14.796 2°52.33 -999 0.067626 0.374522 -0.965744
2008-12-18 09:22:46 51°14.791 2°52.303 -999 0.067626 0.374528 -0.965744
2008-12-18 09:22:52 51°14.785 2°52.271 -999 0.067626 0.374528 -0.965744
2008-12-18 09:22:57 51°14.779 2°52.245 -999 0.067626 0.374522 -0.965744
2008-12-18 09:23:01 51°14.776 2°52.223 -999 0.067626 0.374528 -0.93092
2008-12-18 09:23:06 51°14.771 2°52.196 -999 0.067626 0.374535 -0.965744
2008-12-18 09:23:11 51°14.767 2°52.169 -999 0.067626 0.374535 -0.965744
2008-12-18 09:23:17 51°14.761 2°52.137 -999 0.067626 0.374542 -0.965744
2008-12-18 09:23:22 51°14.757 2°52.109 -999 0.067626 0.374542 -0.965744
2008-12-18 09:23:26 51°14.754 2°52.088 -999 0.067626 0.374542 -0.965744
2008-12-18 09:23:32 51°14.75 2°52.055 -999 0.067626 0.374549 -0.965744
2008-12-18 09:23:37 51°14.746 2°52.027 -999 0.067626 0.374542 -0.965744
2008-12-18 09:23:41 51°14.743 2°52.005 -999 0.067626 0.374549 -0.965744
2008-12-18 09:23:46 51°14.74 2°51.978 -999 0.067626 0.374549 -0.965744
2008-12-18 09:23:52 51°14.736 2°51.945 -999 0.067626 0.374549 -0.965744
2008-12-18 09:23:57 51°14.733 2°51.917 -999 0.067626 0.374549 -0.965744
2008-12-18 09:24:01 51°14.731 2°51.895 -999 0.067626 0.374549 -0.965744
2008-12-18 09:24:06 51°14.728 2°51.867 -999 0.067626 0.374549 -0.965744
2008-12-18 09:24:12 51°14.725 2°51.833 -999 0.067626 0.374549 -0.965744
2008-12-18 09:24:17 51°14.723 2°51.805 -999 0.067626 0.374549 -0.965744
2008-12-18 09:24:21 51°14.721 2°51.783 -999 0.067626 0.374549 -0.965744
2008-12-18 09:24:27 51°14.719 2°51.749 -999 0.067626 0.374555 -0.965744
2008-12-18 09:24:32 51°14.717 2°51.721 -999 0.067626 0.374562 -0.965744
2008-12-18 09:24:37 51°14.715 2°51.692 -999 0.067626 0.374562 -0.965744
2008-12-18 09:24:41 51°14.713 2°51.67 -999 0.067626 0.374562 -0.93092
2008-12-18 09:24:47 51°14.711 2°51.636 -999 0.067626 0.374569 -0.93092
2008-12-18 09:24:52 51°14.709 2°51.608 -999 0.067626 0.374569 -0.93092
2008-12-18 09:24:57 51°14.706 2°51.579 -999 0.067626 0.374569 -0.965744
2008-12-18 09:25:01 51°14.705 2°51.557 -999 0.067626 0.374569 -0.93092
2008-12-18 09:25:06 51°14.703 2°51.528 -999 0.067626 0.374569 -0.965744
2008-12-18 09:25:11 51°14.701 2°51.5 -999 0.067626 0.374569 -0.93092
2008-12-18 09:25:17 51°14.698 2°51.466 -999 0.067626 0.374569 -0.965744
2008-12-18 09:25:22 51°14.696 2°51.438 -999 0.067626 0.374569 -0.965744
2008-12-18 09:25:26 51°14.695 2°51.415 -999 0.067626 0.374569 -0.965744
2008-12-18 09:25:32 51°14.692 2°51.381 -999 0.067626 0.374576 -0.93092
2008-12-18 09:25:37 51°14.689 2°51.353 -999 0.067626 0.374576 -0.965744
2008-12-18 09:25:41 51°14.687 2°51.33 -999 0.067626 0.374576 -0.965744
2008-12-18 09:25:46 51°14.685 2°51.302 -999 0.067626 0.374576 -0.93092
2008-12-18 09:25:52 51°14.682 2°51.268 -999 0.067626 0.374576 -0.93092
2008-12-18 09:25:57 51°14.679 2°51.24 -999 0.067626 0.374576 -0.965744
2008-12-18 09:26:02 51°14.677 2°51.211 -999 0.067626 0.374582 -0.93092
2008-12-18 09:26:06 51°14.674 2°51.189 -999 0.067626 0.374589 -0.93092
2008-12-18 09:26:12 51°14.671 2°51.155 -999 0.067626 0.374589 -0.965744
2008-12-18 09:26:17 51°14.668 2°51.127 -999 0.067626 0.374589 -0.965744
2008-12-18 09:26:21 51°14.666 2°51.104 -999 0.067626 0.374589 -0.965744
2008-12-18 09:26:27 51°14.662 2°51.071 -999 0.067626 0.374596 -0.965744
2008-12-18 09:26:32 51°14.659 2°51.042 -999 0.067626 0.374596 -0.965744
2008-12-18 09:26:37 51°14.656 2°51.014 -999 0.067626 0.374596 -0.93092
2008-12-18 09:26:41 51°14.653 2°50.992 -999 0.067626 0.374596 -0.965744
2008-12-18 09:26:47 51°14.649 2°50.958 -999 0.067626 0.374596 -0.965744
2008-12-18 09:26:52 51°14.646 2°50.93 -999 0.067626 0.374596 -0.965744
2008-12-18 09:26:57 51°14.643 2°50.902 -999 0.067626 0.374603 -0.93092
2008-12-18 09:27:01 51°14.641 2°50.879 -999 0.067626 0.374603 -0.93092
2008-12-18 09:27:07 51°14.637 2°50.846 -999 0.067626 0.374603 -0.93092
2008-12-18 09:27:12 51°14.634 2°50.817 -999 0.067626 0.374609 -0.965744
2008-12-18 09:27:17 51°14.631 2°50.789 -999 0.067626 0.374609 -0.965744
2008-12-18 09:27:21 51°14.628 2°50.767 -999 0.067626 0.374609 -0.965744
2008-12-18 09:27:26 51°14.625 2°50.739 -999 0.067626 0.374609 -0.965744
2008-12-18 09:27:31 51°14.622 2°50.71 -999 0.067626 0.374616 -0.93092
2008-12-18 09:27:37 51°14.619 2°50.676 -999 0.067626 0.374623 -0.965744
2008-12-18 09:27:41 51°14.616 2°50.654 -999 0.067626 0.374623 -0.965744
2008-12-18 09:27:46 51°14.613 2°50.626 -999 0.067626 0.374623 -0.93092
2008-12-18 09:27:52 51°14.609 2°50.592 -999 0.067626 0.374623 -0.93092
2008-12-18 09:27:57 51°14.606 2°50.564 -999 0.067626 0.374623 -0.965744
2008-12-18 09:28:01 51°14.603 2°50.541 -999 0.067626 0.374623 -0.965744
2008-12-18 09:28:06 51°14.6 2°50.513 -999 0.067626 0.37463 -0.93092
2008-12-18 09:28:11 51°14.597 2°50.484 -999 0.067626 0.37463 -0.93092
2008-12-18 09:28:17 51°14.593 2°50.451 -999 0.067626 0.374636 -0.965744
2008-12-18 09:28:22 51°14.59 2°50.422 -999 0.067626 0.374636 -0.965744
2008-12-18 09:28:26 51°14.587 2°50.4 -999 0.067626 0.37463 -0.965744
2008-12-18 09:28:32 51°14.584 2°50.366 -999 0.067626 0.374636 -0.93092
2008-12-18 09:28:37 51°14.58 2°50.338 -999 0.067626 0.374636 -0.965744
2008-12-18 09:28:41 51°14.578 2°50.315 -999 0.067626 0.374643 -0.93092
2008-12-18 09:28:47 51°14.574 2°50.281 -999 0.067626 0.374643 -0.965744
2008-12-18 09:28:52 51°14.571 2°50.253 -999 0.067626 0.374643 -0.965744
2008-12-18 09:28:57 51°14.568 2°50.225 -999 0.067626 0.37465 -0.965744
2008-12-18 09:29:01 51°14.565 2°50.202 -999 0.067626 0.37465 -0.965744
2008-12-18 09:29:07 51°14.561 2°50.168 -999 0.067626 0.37465 -0.965744
2008-12-18 09:29:12 51°14.558 2°50.14 -999 0.067626 0.37465 -0.93092
2008-12-18 09:29:17 51°14.555 2°50.112 -999 0.067626 0.374657 -0.93092
2008-12-18 09:29:21 51°14.553 2°50.089 -999 0.067626 0.374657 -0.93092
2008-12-18 09:29:26 51°14.55 2°50.061 -999 0.067626 0.374657 -0.965744
2008-12-18 09:29:32 51°14.546 2°50.027 -999 0.067626 0.374657 -0.93092
2008-12-18 09:29:37 51°14.542 2°49.999 -999 0.067626 0.374663 -0.965744
2008-12-18 09:29:41 51°14.54 2°49.976 -999 0.067626 0.374663 -0.93092
2008-12-18 09:29:46 51°14.536 2°49.948 -999 0.067626 0.37467 -0.93092
2008-12-18 09:29:52 51°14.533 2°49.914 -999 0.067626 0.37467 -0.93092
2008-12-18 09:29:57 51°14.529 2°49.886 -999 0.067626 0.37467 -0.93092
2008-12-18 09:30:01 51°14.526 2°49.863 -999 0.067626 0.37467 -0.965744
2008-12-18 09:30:06 51°14.522 2°49.836 -999 0.067626 0.374677 -0.93092
2008-12-18 09:30:11 51°14.518 2°49.808 -999 0.067626 0.374677 -0.93092
2008-12-18 09:30:17 51°14.515 2°49.774 -999 0.067626 0.374677 -0.93092
2008-12-18 09:30:22 51°14.511 2°49.746 -999 0.067626 0.374677 -0.93092
2008-12-18 09:30:26 51°14.508 2°49.723 -999 0.067626 0.374683 -0.93092
2008-12-18 09:30:32 51°14.505 2°49.689 -999 0.067626 0.374683 -0.93092
2008-12-18 09:30:37 51°14.501 2°49.661 -999 0.067626 0.37469 -0.965744
2008-12-18 09:30:42 51°14.497 2°49.633 -999 0.067626 0.37469 -0.93092
2008-12-18 09:30:47 51°14.494 2°49.605 -999 0.067626 0.37469 -0.93092
2008-12-18 09:30:52 51°14.49 2°49.576 -999 0.067626 0.37469 -0.93092
2008-12-18 09:30:57 51°14.487 2°49.548 -999 0.067626 0.374697 -0.965744
2008-12-18 09:31:01 51°14.484 2°49.526 -999 0.067626 0.374704 -0.93092
2008-12-18 09:31:07 51°14.48 2°49.492 -999 0.067626 0.374704 -0.93092
2008-12-18 09:31:12 51°14.476 2°49.464 -999 0.067626 0.374697 -0.965744
2008-12-18 09:31:17 51°14.472 2°49.436 -999 0.067626 0.37471 -0.93092
2008-12-18 09:31:21 51°14.469 2°49.413 -999 0.067626 0.37471 -0.93092
2008-12-18 09:31:26 51°14.466 2°49.385 -999 0.067626 0.37471 -0.965744
2008-12-18 09:31:32 51°14.462 2°49.351 -999 0.067626 0.37471 -0.93092
2008-12-18 09:31:37 51°14.459 2°49.323 -999 0.067626 0.37471 -0.965744
2008-12-18 09:31:41 51°14.456 2°49.3 -999 0.067626 0.374717 -0.93092
2008-12-18 09:31:46 51°14.453 2°49.272 -999 0.067626 0.374717 -0.93092
2008-12-18 09:31:52 51°14.449 2°49.238 -999 0.067626 0.374717 -0.93092
2008-12-18 09:31:57 51°14.446 2°49.21 -999 0.067626 0.374724 -0.93092
2008-12-18 09:32:01 51°14.444 2°49.187 -999 0.067626 0.374724 -0.965744
2008-12-18 09:32:06 51°14.441 2°49.159 -999 0.067626 0.374731 -0.965744
2008-12-18 09:32:11 51°14.438 2°49.131 -999 0.067626 0.374731 -0.965744
2008-12-18 09:32:17 51°14.435 2°49.097 -999 0.067626 0.374737 -0.93092
2008-12-18 09:32:21 51°14.432 2°49.074 -999 0.067626 0.374737 -0.93092
2008-12-18 09:32:26 51°14.43 2°49.045 -999 0.067626 0.374731 -0.93092
2008-12-18 09:32:31 51°14.427 2°49.017 -999 0.067626 0.374737 -0.965744
2008-12-18 09:32:37 51°14.423 2°48.983 -999 0.067626 0.374737 -0.965744
2008-12-18 09:32:42 51°14.42 2°48.955 -999 0.067626 0.374737 -0.93092
2008-12-18 09:32:46 51°14.418 2°48.932 -999 0.067626 0.374744 -0.965744
2008-12-18 09:32:52 51°14.414 2°48.898 -999 0.067626 0.374744 -0.965744
2008-12-18 09:32:57 51°14.411 2°48.87 -999 0.067626 0.374744 -0.93092
2008-12-18 09:33:02 51°14.408 2°48.841 -999 0.067626 0.374744 -0.965744
2008-12-18 09:33:07 51°14.405 2°48.813 -999 0.067626 0.374751 -0.965744
2008-12-18 09:33:12 51°14.402 2°48.785 -999 0.067626 0.374758 -0.965744
2008-12-18 09:33:17 51°14.399 2°48.756 -999 0.067626 0.374758 -0.93092
2008-12-18 09:33:22 51°14.396 2°48.728 -999 0.067626 0.374758 -0.93092
2008-12-18 09:33:26 51°14.393 2°48.705 -999 0.067626 0.374758 -0.93092
2008-12-18 09:33:32 51°14.39 2°48.672 -999 0.067626 0.374764 -0.93092
2008-12-18 09:33:37 51°14.387 2°48.644 -999 0.067626 0.374771 -0.965744
2008-12-18 09:33:41 51°14.384 2°48.621 -999 0.067626 0.374771 -0.93092
2008-12-18 09:33:46 51°14.381 2°48.593 -999 0.067626 0.374771 -0.93092
2008-12-18 09:33:52 51°14.377 2°48.559 -999 0.067626 0.374771 -0.93092
2008-12-18 09:33:57 51°14.374 2°48.531 -999 0.067626 0.374771 -0.965744
2008-12-18 09:34:01 51°14.372 2°48.508 -999 0.067626 0.374771 -0.965744
2008-12-18 09:34:06 51°14.369 2°48.48 -999 0.067626 0.374812 -0.791624
2008-12-18 09:34:12 51°14.365 2°48.446 -999 0.067524 0.374162 -0.373735
2008-12-18 09:34:17 51°14.362 2°48.418 -999 0.067524 0.374196 -0.373735
2008-12-18 09:34:21 51°14.36 2°48.396 -999 0.067524 0.374196 -0.373735
2008-12-18 09:34:26 51°14.356 2°48.368 -999 0.16437 0.957735 0.53169
2008-12-18 09:34:31 51°14.353 2°48.339 -999 0.939186 6.450524 0.845107
2008-12-18 09:34:37 51°14.349 2°48.306 -999 1.937197 15.040776 1.541588
2008-12-18 09:34:42 51°14.347 2°48.277 -999 2.101533 17.333235 1.123699
2008-12-18 09:34:46 51°14.344 2°48.255 -999 2.815984 25.139816 1.158523
2008-12-18 09:34:52 51°14.34 2°48.221 -999 2.815984 25.139816 1.158523
2008-12-18 09:34:57 51°14.338 2°48.192 -999 3.347735 31.42663 0.879931
2008-12-18 09:35:02 51°14.334 2°48.164 -999 3.454224 33.122289 0.740634
2008-12-18 09:35:07 51°14.331 2°48.136 -999 3.438068 33.362013 0.740634
2008-12-18 09:35:12 51°14.328 2°48.108 -999 3.420772 33.482907 0.70581
2008-12-18 09:35:17 51°14.325 2°48.079 -999 3.420257 33.678722 0.636162
2008-12-18 09:35:22 51°14.322 2°48.051 -999 3.420257 33.678722 0.636162
2008-12-18 09:35:26 51°14.32 2°48.028 -999 3.408864 33.66096 0.636162
2008-12-18 09:35:32 51°14.316 2°47.994 -999 3.404307 33.700864 0.601338
2008-12-18 09:35:37 51°14.313 2°47.966 -999 3.399336 33.718917 0.566514
2008-12-18 09:35:42 51°14.309 2°47.938 -999 3.394572 33.713481 0.566514
2008-12-18 09:35:46 51°14.307 2°47.915 -999 3.393018 33.721292 0.53169
2008-12-18 09:35:52 51°14.303 2°47.881 -999 3.393018 33.721292 0.53169
2008-12-18 09:35:57 51°14.3 2°47.853 -999 3.390636 33.71997 0.53169
2008-12-18 09:36:01 51°14.298 2°47.83 -999 3.389083 33.721322 0.566514
2008-12-18 09:36:06 51°14.295 2°47.802 -999 3.386804 33.707257 0.53169
2008-12-18 09:36:12 51°14.291 2°47.768 -999 3.385976 33.703656 0.53169
2008-12-18 09:36:17 51°14.288 2°47.74 -999 3.385872 33.721038 0.496866
2008-12-18 09:36:21 51°14.285 2°47.717 -999 3.385872 33.721038 0.496866
2008-12-18 09:36:26 51°14.283 2°47.689 -999 3.386183 33.734673 0.496866
2008-12-18 09:36:32 51°14.279 2°47.655 -999 3.387633 33.759993 0.496866
2008-12-18 09:36:37 51°14.276 2°47.627 -999 3.385769 33.752363 0.53169
2008-12-18 09:36:41 51°14.273 2°47.604 -999 3.389187 33.798563 0.496866
2008-12-18 09:36:46 51°14.27 2°47.576 -999 3.390534 33.817194 0.462042
2008-12-18 09:36:51 51°14.267 2°47.548 -999 3.390534 33.817194 0.462042
2008-12-18 09:36:57 51°14.264 2°47.515 -999 3.39043 33.816047 0.496866
2008-12-18 09:37:02 51°14.261 2°47.487 -999 3.390948 33.823643 0.462042
2008-12-18 09:37:06 51°14.258 2°47.464 -999 3.390119 33.814467 0.462042
2008-12-18 09:37:12 51°14.255 2°47.431 -999 3.393538 33.855117 0.462042
2008-12-18 09:37:17 51°14.252 2°47.403 -999 3.390327 33.818623 0.462042
2008-12-18 09:37:22 51°14.249 2°47.375 -999 3.390327 33.818623 0.462042
2008-12-18 09:37:26 51°14.246 2°47.352 -999 3.393848 33.845514 0.462042
2008-12-18 09:37:32 51°14.243 2°47.319 -999 3.395091 33.847168 0.496866
2008-12-18 09:37:37 51°14.24 2°47.291 -999 3.399545 33.885287 0.462042
2008-12-18 09:37:42 51°14.237 2°47.263 -999 3.400788 33.888793 0.462042
2008-12-18 09:37:46 51°14.235 2°47.241 -999 3.40462 33.91908 0.462042
2008-12-18 09:37:52 51°14.231 2°47.208 -999 3.40462 33.91908 0.462042
2008-12-18 09:37:57 51°14.228 2°47.18 -999 3.406899 33.934965 0.496866
2008-12-18 09:38:01 51°14.226 2°47.157 -999 3.406692 33.922424 0.462042
2008-12-18 09:38:07 51°14.222 2°47.124 -999 3.40897 33.938302 0.496866
2008-12-18 09:38:12 51°14.219 2°47.097 -999 3.405759 33.900945 0.462042
2008-12-18 09:38:17 51°14.216 2°47.069 -999 3.40897 33.936438 0.462042
2008-12-18 09:38:21 51°14.214 2°47.047 -999 3.40897 33.936438 0.462042
2008-12-18 09:38:27 51°14.21 2°47.014 -999 3.408556 33.92627 0.496866
2008-12-18 09:38:32 51°14.206 2°46.986 -999 3.40897 33.929918 0.462042
2008-12-18 09:38:37 51°14.203 2°46.959 -999 3.412803 33.973214 0.462042
2008-12-18 09:38:41 51°14.201 2°46.937 -999 3.410731 33.94845 0.496866
2008-12-18 09:38:46 51°14.197 2°46.91 -999 3.412285 33.961895 0.53169
2008-12-18 09:38:52 51°14.193 2°46.877 -999 3.412285 33.961895 0.53169
2008-12-18 09:38:57 51°14.189 2°46.85 -999 3.412389 33.960244 0.496866
2008-12-18 09:39:02 51°14.185 2°46.822 -999 3.410835 33.943073 0.53169
2008-12-18 09:39:06 51°14.183 2°46.8 -999 3.412181 33.952365 0.496866
2008-12-18 09:39:12 51°14.178 2°46.767 -999 3.416532 33.992981 0.53169
2008-12-18 09:39:17 51°14.174 2°46.74 -999 3.417775 34.00485 0.496866
2008-12-18 09:39:22 51°14.171 2°46.713 -999 3.417775 34.00485 0.496866
2008-12-18 09:39:26 51°14.168 2°46.691 -999 3.418914 34.015575 0.496866
2008-12-18 09:39:32 51°14.163 2°46.658 -999 3.420675 34.033167 0.496866
2008-12-18 09:39:37 51°14.16 2°46.631 -999 3.418085 34.002689 0.496866
2008-12-18 09:39:42 51°14.156 2°46.603 -999 3.416324 33.979508 0.462042
2008-12-18 09:39:46 51°14.153 2°46.581 -999 3.414771 33.95676 0.496866
2008-12-18 09:39:52 51°14.149 2°46.548 -999 3.414771 33.95676 0.496866
2008-12-18 09:39:57 51°14.146 2°46.521 -999 3.418085 33.98964 0.53169
2008-12-18 09:40:02 51°14.142 2°46.493 -999 3.417878 33.981763 0.496866
2008-12-18 09:40:06 51°14.14 2°46.471 -999 3.413217 33.928441 0.496866
2008-12-18 09:40:12 51°14.136 2°46.437 -999 3.411456 33.907146 0.566514
2008-12-18 09:40:17 51°14.133 2°46.41 -999 3.41736 33.969528 0.53169
2008-12-18 09:40:21 51°14.13 2°46.388 -999 3.41736 33.969528 0.53169
2008-12-18 09:40:27 51°14.125 2°46.355 -999 3.420053 33.996466 0.53169
2008-12-18 09:40:32 51°14.121 2°46.328 -999 3.423264 34.025393 0.496866
2008-12-18 09:40:37 51°14.116 2°46.3 -999 3.422436 34.015313 0.496866
2008-12-18 09:40:41 51°14.112 2°46.279 -999 3.421193 33.998799 0.566514
2008-12-18 09:40:46 51°14.106 2°46.252 -999 3.420468 33.989865 0.636162
2008-12-18 09:40:52 51°14.1 2°46.22 -999 3.420468 33.989865 0.636162
2008-12-18 09:40:57 51°14.093 2°46.194 -999 3.421503 33.999435 0.810283
2008-12-18 09:41:01 51°14.088 2°46.173 -999 3.417153 33.94399 0.601338
2008-12-18 09:41:06 51°14.081 2°46.147 -999 3.413527 33.895647 0.427218
2008-12-18 09:41:12 51°14.072 2°46.117 -999 3.419224 33.95383 0.462042
2008-12-18 09:41:17 51°14.063 2°46.092 -999 3.410419 33.852119 0.427218
2008-12-18 09:41:22 51°14.055 2°46.068 -999 3.410419 33.852119 0.427218
2008-12-18 09:41:26 51°14.047 2°46.049 -999 3.430515 34.067192 0.427218
2008-12-18 09:41:32 51°14.036 2°46.021 -999 3.432172 34.078947 0.427218
2008-12-18 09:41:37 51°14.026 2°45.998 -999 3.432069 34.071281 0.427218
2008-12-18 09:41:41 51°14.018 2°45.98 -999 3.430204 34.043274 0.427218
2008-12-18 09:41:46 51°14.007 2°45.958 -999 3.433001 34.066655 0.427218
2008-12-18 09:41:52 51°13.995 2°45.931 -999 3.433001 34.066655 0.427218
2008-12-18 09:41:57 51°13.983 2°45.911 -999 3.431033 34.042171 0.392394
2008-12-18 09:42:02 51°13.972 2°45.89 -999 3.434969 34.08276 0.427218
2008-12-18 09:42:06 51°13.962 2°45.875 -999 3.434658 34.076541 0.427218
2008-12-18 09:42:12 51°13.947 2°45.851 -999 3.435487 34.081948 0.427218
2008-12-18 09:42:17 51°13.935 2°45.832 -999 3.435383 34.078944 0.427218
2008-12-18 09:42:22 51°13.922 2°45.813 -999 3.435383 34.078944 0.427218
2008-12-18 09:42:27 51°13.909 2°45.795 -999 3.435901 34.079996 0.427218
2008-12-18 09:42:32 51°13.896 2°45.776 -999 3.435487 34.070777 0.427218
2008-12-18 09:42:37 51°13.883 2°45.759 -999 3.437559 34.090807 0.427218
2008-12-18 09:42:41 51°13.873 2°45.744 -999 3.436626 34.075883 0.427218
2008-12-18 09:42:46 51°13.859 2°45.727 -999 3.437248 34.079937 0.427218
2008-12-18 09:42:52 51°13.843 2°45.707 -999 3.437248 34.079937 0.427218
2008-12-18 09:42:57 51°13.83 2°45.689 -999 3.437351 34.080147 0.462042
2008-12-18 09:43:01 51°13.819 2°45.675 -999 3.437144 34.076005 0.462042
2008-12-18 09:43:06 51°13.806 2°45.658 -999 3.439112 34.094888 0.462042
2008-12-18 09:43:12 51°13.79 2°45.638 -999 3.437662 34.077987 0.462042
2008-12-18 09:43:17 51°13.776 2°45.622 -999 3.437973 34.080479 0.462042
2008-12-18 09:43:22 51°13.763 2°45.605 -999 3.437973 34.080479 0.462042
2008-12-18 09:43:26 51°13.752 2°45.592 -999 3.437144 34.069493 0.462042
2008-12-18 09:43:32 51°13.736 2°45.572 -999 3.436626 34.063791 0.462042
2008-12-18 09:43:37 51°13.722 2°45.556 -999 3.436937 34.066282 0.462042
2008-12-18 09:43:42 51°13.709 2°45.54 -999 3.437455 34.071985 0.462042
2008-12-18 09:43:46 51°13.698 2°45.527 -999 3.437351 34.069914 0.462042
2008-12-18 09:43:51 51°13.684 2°45.51 -999 3.437351 34.069914 0.462042
2008-12-18 09:43:57 51°13.668 2°45.49 -999 3.437455 34.070125 0.462042
2008-12-18 09:44:02 51°13.655 2°45.473 -999 3.43704 34.064633 0.462042
2008-12-18 09:44:06 51°13.644 2°45.46 -999 3.437351 34.068984 0.496866
2008-12-18 09:44:12 51°13.628 2°45.44 -999 3.436626 34.060072 0.496866
2008-12-18 09:44:17 51°13.615 2°45.423 -999 3.268012 32.20841 0.496866
2008-12-18 09:44:22 51°13.602 2°45.407 -999 3.268012 32.20841 0.496866
2008-12-18 09:44:27 51°13.589 2°45.389 -999 3.439837 34.092635 0.496866
2008-12-18 09:44:32 51°13.575 2°45.372 -999 3.439734 34.091495 0.496866
2008-12-18 09:44:37 51°13.562 2°45.355 -999 3.439837 34.092635 0.496866
2008-12-18 09:44:41 51°13.551 2°45.342 -999 3.439837 34.093566 0.462042
2008-12-18 09:44:47 51°13.536 2°45.321 -999 3.43963 34.090354 0.496866
2008-12-18 09:44:52 51°13.522 2°45.303 -999 3.43963 34.090354 0.496866
2008-12-18 09:44:57 51°13.509 2°45.286 -999 3.439527 34.087353 0.496866
2008-12-18 09:45:01 51°13.498 2°45.272 -999 3.439423 34.086213 0.496866
2008-12-18 09:45:07 51°13.482 2°45.251 -999 3.439423 34.088073 0.496866
2008-12-18 09:45:12 51°13.468 2°45.234 -999 3.439319 34.086003 0.496866
2008-12-18 09:45:17 51°13.455 2°45.215 -999 3.439009 34.081651 0.496866
2008-12-18 09:45:21 51°13.444 2°45.201 -999 3.439009 34.081651 0.496866
2008-12-18 09:45:26 51°13.431 2°45.181 -999 3.438905 34.081441 0.496866
2008-12-18 09:45:32 51°13.415 2°45.159 -999 3.438905 34.083301 0.53169
2008-12-18 09:45:37 51°13.402 2°45.14 -999 3.439009 34.084442 0.496866
2008-12-18 09:45:41 51°13.392 2°45.124 -999 3.438905 34.084232 0.53169
2008-12-18 09:45:46 51°13.379 2°45.105 -999 3.438491 34.078739 0.53169
2008-12-18 09:45:52 51°13.363 2°45.082 -999 3.438491 34.078739 0.53169
2008-12-18 09:45:57 51°13.35 2°45.062 -999 3.438594 34.07802 0.496866
2008-12-18 09:46:01 51°13.34 2°45.047 -999 3.438491 34.076879 0.496866
2008-12-18 09:46:06 51°13.327 2°45.027 -999 3.438594 34.07709 0.496866
2008-12-18 09:46:11 51°13.314 2°45.008 -999 3.43818 34.072528 0.53169
2008-12-18 09:46:17 51°13.299 2°44.985 -999 3.438594 34.07802 0.496866
2008-12-18 09:46:22 51°13.286 2°44.965 -999 3.438594 34.07802 0.496866
2008-12-18 09:46:26 51°13.275 2°44.949 -999 3.438491 34.077809 0.496866
2008-12-18 09:46:32 51°13.26 2°44.926 -999 3.438283 34.074599 0.496866
2008-12-18 09:46:37 51°13.247 2°44.907 -999 3.438387 34.076669 0.496866
2008-12-18 09:46:42 51°13.234 2°44.887 -999 3.43818 34.074388 0.496866
2008-12-18 09:46:47 51°13.221 2°44.868 -999 3.437455 34.066406 0.462042
2008-12-18 09:46:52 51°13.208 2°44.849 -999 3.437455 34.066406 0.462042
2008-12-18 09:46:57 51°13.195 2°44.83 -999 3.437973 34.073037 0.496866
2008-12-18 09:47:01 51°13.185 2°44.814 -999 3.437558 34.069406 0.496866
2008-12-18 09:47:06 51°13.171 2°44.796 -999 3.438076 34.075108 0.496866
2008-12-18 09:47:12 51°13.156 2°44.772 -999 3.437766 34.071686 0.496866
2008-12-18 09:47:17 51°13.143 2°44.754 -999 3.43704 34.062774 0.462042
2008-12-18 09:47:21 51°13.132 2°44.739 -999 3.43704 34.062774 0.462042
2008-12-18 09:47:27 51°13.116 2°44.716 -999 3.437455 34.066406 0.462042
2008-12-18 09:47:32 51°13.103 2°44.697 -999 3.437351 34.066195 0.462042
2008-12-18 09:47:37 51°13.09 2°44.678 -999 3.437144 34.064844 0.462042
2008-12-18 09:47:41 51°13.08 2°44.663 -999 3.436937 34.063493 0.496866
2008-12-18 09:47:46 51°13.066 2°44.644 -999 3.437248 34.067844 0.462042
2008-12-18 09:47:52 51°13.051 2°44.62 -999 3.437248 34.067844 0.462042
2008-12-18 09:47:57 51°13.037 2°44.602 -999 3.43673 34.062142 0.427218
2008-12-18 09:48:01 51°13.027 2°44.586 -999 3.437558 34.070335 0.462042
2008-12-18 09:48:06 51°13.014 2°44.567 -999 3.437248 34.066914 0.462042
2008-12-18 09:48:12 51°12.999 2°44.543 -999 3.43673 34.059353 0.462042
2008-12-18 09:48:17 51°12.985 2°44.525 -999 3.436833 34.061423 0.427218
2008-12-18 09:48:22 51°12.972 2°44.505 -999 3.436833 34.061423 0.427218
2008-12-18 09:48:26 51°12.961 2°44.49 -999 3.436522 34.058931 0.427218
2008-12-18 09:48:32 51°12.946 2°44.467 -999 3.43673 34.063072 0.462042
2008-12-18 09:48:37 51°12.933 2°44.448 -999 3.436626 34.061001 0.462042
2008-12-18 09:48:42 51°12.919 2°44.429 -999 3.436626 34.060072 0.427218
2008-12-18 09:48:47 51°12.906 2°44.41 -999 3.436108 34.05437 0.427218
2008-12-18 09:48:52 51°12.893 2°44.391 -999 3.436108 34.05437 0.427218
2008-12-18 09:48:57 51°12.88 2°44.371 -999 3.436419 34.057791 0.392394
2008-12-18 09:49:01 51°12.869 2°44.356 -999 3.436212 34.057369 0.462042
2008-12-18 09:49:06 51°12.856 2°44.337 -999 3.436212 34.05644 0.462042
2008-12-18 09:49:12 51°12.84 2°44.314 -999 3.435694 34.051667 0.462042
2008-12-18 09:49:17 51°12.827 2°44.294 -999 3.435797 34.053737 0.427218
2008-12-18 09:49:22 51°12.814 2°44.275 -999 3.435797 34.053737 0.427218
2008-12-18 09:49:27 51°12.801 2°44.256 -999 3.43559 34.052386 0.427218
2008-12-18 09:49:32 51°12.787 2°44.237 -999 3.43559 34.053315 0.462042
2008-12-18 09:49:37 51°12.774 2°44.217 -999 3.435383 34.051034 0.462042
2008-12-18 09:49:41 51°12.763 2°44.202 -999 3.435694 34.055385 0.462042
2008-12-18 09:49:47 51°12.748 2°44.179 -999 3.435072 34.048542 0.462042
2008-12-18 09:49:52 51°12.734 2°44.16 -999 3.435072 34.048542 0.462042
2008-12-18 09:49:57 51°12.721 2°44.14 -999 3.435072 34.049472 0.462042
2008-12-18 09:50:01 51°12.71 2°44.125 -999 3.434969 34.048331 0.462042
2008-12-18 09:50:06 51°12.697 2°44.106 -999 3.434969 34.047402 0.462042
2008-12-18 09:50:12 51°12.681 2°44.083 -999 3.434762 34.044191 0.462042
2008-12-18 09:50:17 51°12.668 2°44.064 -999 3.434969 34.048331 0.427218
2008-12-18 09:50:21 51°12.658 2°44.048 -999 3.434969 34.048331 0.427218
2008-12-18 09:50:26 51°12.644 2°44.029 -999 3.434554 34.045628 0.427218
2008-12-18 09:50:31 51°12.631 2°44.01 -999 3.434658 34.048628 0.462042
2008-12-18 09:50:37 51°12.615 2°43.987 -999 3.434347 34.046135 0.462042
2008-12-18 09:50:42 51°12.602 2°43.968 -999 3.434036 34.044573 0.462042
2008-12-18 09:50:46 51°12.591 2°43.953 -999 3.433933 34.044362 0.427218
2008-12-18 09:50:52 51°12.576 2°43.929 -999 3.433933 34.044362 0.427218
2008-12-18 09:50:57 51°12.562 2°43.911 -999 3.433311 34.039376 0.427218
2008-12-18 09:51:02 51°12.549 2°43.893 -999 3.433519 34.041658 0.427218
2008-12-18 09:51:06 51°12.538 2°43.878 -999 3.433726 34.044869 0.427218
2008-12-18 09:51:12 51°12.522 2°43.857 -999 3.432897 34.038531 0.427218
2008-12-18 09:51:17 51°12.508 2°43.839 -999 3.433311 34.044025 0.427218
2008-12-18 09:51:22 51°12.494 2°43.821 -999 3.433311 34.044025 0.427218
2008-12-18 09:51:26 51°12.483 2°43.806 -999 3.432897 34.041321 0.427218
2008-12-18 09:51:32 51°12.467 2°43.785 -999 3.432276 34.035405 0.462042